LES COURSES

LE 10KM (LABEL RÉGIONAL)

La course des 10 km est ouverte aux jeunes adultes et adultes (16 ans et plus).

Départ : Chemin St Georges


Elle présente un profil roulant dans le cadre verdoyant de la campagne bonduoise, aux limites de Linselles et de Wambrechies.

La Ligue d’Athlétisme a attribué le Label Régional aux Foulées de Bondues. Ce Label assure Qualité, Sécurité et Convivialité.


Z

Qualité

Echauffement avant départ, zones de ravitaillement, encadrement de la course… tout est fait pour que vous n’ayez à penser qu’à vous et votre course !

Sécurité

Un dispositif médical avec des moyens humains et matériels est prévu ainsi que des commissaires de courses et un balisage précis du parcours

Convivialité

l’équipe organisatrice et les bénévoles sont disponibles et à votre disposition ; des animations seront organisées pour vous mettre dans l’ambiance !

Toute l’équipe s’engage, autour du label régional FFA à vous faire vivre votre performance en pleine sécurité et en toute convivialité !

Classement 2017

CourseClassementNomPrénomLicenceNuméroNaissanceClassement par Cat.Abbrev. CatégorieSexeClassement par SexeSexe2TempsClub
10KM LABEL REGIONAL1CARETTEROMAIN129561325619901SEM1M00:32:16.34US TOURCOING
10KM LABEL REGIONAL2VENZADavid43824197219721V1M2M00:33:09.79ENTENTE LITTORAL ATHLETISME NO
10KM LABEL REGIONAL3DELANNOYFREDERIC127499536719852SEM3M00:34:06.50US VALENCIENNES ATHLETISME
10KM LABEL REGIONAL4BOUVIERPierre21519783SEM4M00:34:13.66FABULOUS TEAM
10KM LABEL REGIONAL5LECOMTEAYMERIC161719804SEM5M00:34:21.06
10KM LABEL REGIONAL6PARENTJulien14353781119925SEM6M00:34:33.72HEM ATHLETIC CLUB
10KM LABEL REGIONAL7BOUGAILLOURACHID159719806SEM7M00:34:45.55
10KM LABEL REGIONAL8SADOINEFREDERIC165239988619837SEM8M00:35:13.64AS PIERREFITTE
10KM LABEL REGIONAL9BANACHLudovic14819762V1M9M00:35:18.20
10KM LABEL REGIONAL10DUBOISBENJAMIN1204676166319981JUM10M00:35:19.41AC WAMBRECHIES
10KM LABEL REGIONAL11BOULINMICHAEL164519848SEM11M00:35:35.86
10KM LABEL REGIONAL12KHATRANIZAKARIAA165242363319829SEM12M00:35:48.63US TOURCOING
10KM LABEL REGIONAL13PASCHANAADRIEN1846500815198710SEM13M00:35:59.78US TOURCOING
10KM LABEL REGIONAL14SZYMCZAKLUDOVIC1284933911198111SEM14M00:36:04.40RUNNING CLUB NOYELLOIS
10KM LABEL REGIONAL15DESREUMAUXRomain430199212SEM15M00:36:30.90
10KM LABEL REGIONAL16HINGRANDEdva120189602198313SEM16M00:36:42.79US TOURCOING
10KM LABEL REGIONAL17DEGELCKEMICHAEL122568535519763V1M17M00:36:45.94AC AUDOMAROIS
10KM LABEL REGIONAL18DELAVALBENOIT1612198314SEM18M00:36:54.88
10KM LABEL REGIONAL19CANAVATENICOLAS131767625019764V1M19M00:36:56.56US MARQUETTE
10KM LABEL REGIONAL20GAXATTECEDRIC66278354319755V1M20M00:37:10.83US TOURCOING
10KM LABEL REGIONAL21DELCROIXYANN15514331625197815SEM21M00:37:21.55US MARQUETTE
10KM LABEL REGIONAL22HAMDATNOREDDINE18947157719661V2M22M00:37:23.77NOUVEAU ST AMAND ETUDIANT CLUB
10KM LABEL REGIONAL23DULIEUAnthony1576198416SEM23M00:37:26.57
10KM LABEL REGIONAL24DUVILLIERFrédéric502197917SEM24M00:37:27.60
10KM LABEL REGIONAL25BELHACHEMBrahim144919756V1M25M00:37:33.99
10KM LABEL REGIONAL26LEULMIKAMEL1950853707198718SEM26M00:37:34.23ATHLE HALLUIN-VAL-DE-LYS
10KM LABEL REGIONAL27BOUROUBAMOHAMED176689921019767V1M27M00:37:34.97C BILLY MONTIGNY
10KM LABEL REGIONAL28DELECROIXLoic37919778V1M28M00:37:34.97VILLENEUVE D'ASCQ TRIATHLON
10KM LABEL REGIONAL29HEWUSZFABRICE160877759619769V1M29M00:37:36.19C BILLY MONTIGNY
10KM LABEL REGIONAL30STIEREMANSPIERRE1621199319SEM30M00:37:50.22
10KM LABEL REGIONAL31MAILLARDCHARLES EDOUARD1644199220SEM31M00:37:51.35
10KM LABEL REGIONAL32GEVARTFREDERIC16964621478197510V1M32M00:38:07.44AC VILLENEUVE D'ASCQ
10KM LABEL REGIONAL33BEAREEDAMIEN154159216119662V2M33M00:38:15.15AC VILLENEUVE D'ASCQ
10KM LABEL REGIONAL34DEWAVRINFLORENT1607198321SEM34M00:38:19.03
10KM LABEL REGIONAL35LECLERCQLUDOVIC1643724673197922SEM35M00:38:26.39RONCHIN ATHLETIC CLUB
10KM LABEL REGIONAL36VOETENNicolasA08858C1536197411V1M36M00:38:28.37ATHLE HALLUIN-VAL-DE-LYS
10KM LABEL REGIONAL37VERINThomas1893066978199123SEM37M00:38:31.65AC VILLENEUVE D'ASCQ
10KM LABEL REGIONAL38DAMAYThomas326198424SEM38M00:38:32.21
10KM LABEL REGIONAL39BELLOMONOEL1477198825SEM39M00:38:34.56
10KM LABEL REGIONAL40BROCASMaxime224198526SEM40M00:38:37.26OWENS 36
10KM LABEL REGIONAL41GATINETRenaud537198127SEM41M00:38:41.68
10KM LABEL REGIONAL42MARTINBENJAMIN1646199128SEM42M00:38:52.59
10KM LABEL REGIONAL43ABOUSITREAhmed118198329SEM43M00:38:54.76
10KM LABEL REGIONAL44DUMORTIERDAVID1926936487197930SEM44M00:38:55.75US MARQUETTE
10KM LABEL REGIONAL45BOURELBenjamin206199231SEM45M00:38:56.33
10KM LABEL REGIONAL46MAUNAYSERGE1626197212V1M46M00:39:00.46
10KM LABEL REGIONAL47PASTANTPierre??????81619961ESM47M00:39:05.23JOGGING AVENTURE RONCQUOISE
10KM LABEL REGIONAL48DUCHENEJean-luc478196913V1M48M00:39:08.67
10KM LABEL REGIONAL49BARBIEUXCharles151198732SEM49M00:39:15.17
10KM LABEL REGIONAL50DEMONLoic1408197514V1M50M00:39:15.38
10KM LABEL REGIONAL51LEIGNELLAURENT1651919688197833SEM51M00:39:16.08US MARQUETTE
10KM LABEL REGIONAL52DULOTELODIE212407165019861SEF1F00:39:20.48SAINT VENANT ATHLETISME
10KM LABEL REGIONAL53CAULLIEZCésar272198234SEM52M00:39:21.72
10KM LABEL REGIONAL54VERCAIGNEBob97419653V2M53M00:39:23.85
10KM LABEL REGIONAL55NORTIERThierry1547844799196915V1M54M00:39:24.98
10KM LABEL REGIONAL56LAURENTSTEPHANE1898827657197416V1M55M00:39:33.08US MARQUETTE
10KM LABEL REGIONAL57DAILLYRemi1591198435SEM56M00:39:41.31
10KM LABEL REGIONAL58COLLESSON-HAECKPhilippe249617141019654V2M57M00:39:42.22AC VILLENEUVE D'ASCQ
10KM LABEL REGIONAL59BEZOTTEChristophe155101-M58M00:39:43.36
10KM LABEL REGIONAL60BORDETSébastien197197217V1M59M00:39:43.64
10KM LABEL REGIONAL61LAMERANDPhilippe650197118V1M60M00:39:44.00
10KM LABEL REGIONAL62LIPKAXAVIER1539997718197836SEM61M00:39:44.73US MARQUETTE
10KM LABEL REGIONAL63AOUSALAHLARBI1689996135197419V1M62M00:39:45.03PLANETE RUNNING AND WALKING
10KM LABEL REGIONAL64LEVRAGUEBenjamin708198337SEM63M00:39:47.79
10KM LABEL REGIONAL65DERCKSTEPHANIE577383163819892SEF2F00:39:48.29US TOURCOING
10KM LABEL REGIONAL66DEWOLFFabrice181289944819655V2M64M00:39:48.73PLANETE RUNNING AND WALKING
10KM LABEL REGIONAL67DELAHOUTREGREGORY1465196920V1M65M00:39:49.81
10KM LABEL REGIONAL68LELLOURudy690197838SEM66M00:39:50.61
10KM LABEL REGIONAL69GOBERTArnaud1502197521V1M67M00:39:50.96
10KM LABEL REGIONAL70DESRAMEAUXAdrien427198939SEM68M00:39:51.39
10KM LABEL REGIONAL71MALVACHENICOLAS747198040SEM69M00:39:53.86
10KM LABEL REGIONAL72SMIRNOVSerguei1561198241SEM70M00:39:54.17
10KM LABEL REGIONAL73RABAUGermain855198942SEM71M00:39:57.67
10KM LABEL REGIONAL74BAUDECaroline15819903SEF3F00:40:00.17
10KM LABEL REGIONAL75VERSCHAEVEXavier986197422V1M72M00:40:00.42COURIR A COMINES
10KM LABEL REGIONAL76DELCAMBREAlexis374199243SEM73M00:40:01.87LILLE TRIATHLON
10KM LABEL REGIONAL77MOREIRAANTHONY1608199244SEM74M00:40:02.59
10KM LABEL REGIONAL78NATURELJeremy1571199045SEM75M00:40:05.52
10KM LABEL REGIONAL79DENNEULINLAURENT1556495397197423V1M76M00:40:06.89C BILLY MONTIGNY
10KM LABEL REGIONAL80VAN ELSLANDEThomas945197624V1M77M00:40:08.34
10KM LABEL REGIONAL81DZIWCKIMichel503198046SEM78M00:40:11.74
10KM LABEL REGIONAL82VIGOGNESebastien992197625V1M79M00:40:14.46
10KM LABEL REGIONAL83DEGARDINDavid354198247SEM80M00:40:15.92
10KM LABEL REGIONAL84MACREZNICOLAS1919948736198648SEM81M00:40:17.24WINGLES ATHLETIC CLUB
10KM LABEL REGIONAL85FRELIEZJEREMIE530198149SEM82M00:40:17.44
10KM LABEL REGIONAL86LEGRANDPATRICK121647268719616V2M83M00:40:21.46US MARQUETTE
10KM LABEL REGIONAL87HALLIÉFlorian576198850SEM84M00:40:22.48
10KM LABEL REGIONAL88BETRICHEHOCINE17089551609197126V1M85M00:40:25.10HEM ATHLETIC CLUB
10KM LABEL REGIONAL89DAMECECILE105693932719761V1F4F00:40:31.40US MARQUETTE
10KM LABEL REGIONAL90CHEVALIERLAURENT148517628219597V2M86M00:40:33.27ASPTT LILLE METROPOLE
10KM LABEL REGIONAL91GAHIDEJulien532198351SEM87M00:40:37.31
10KM LABEL REGIONAL92VOLPIGregory999198152SEM88M00:40:38.33
10KM LABEL REGIONAL93RUDANTJB1662197853SEM89M00:40:39.34
10KM LABEL REGIONAL94HEURTEAUXFrederic595196827V1M90M00:40:46.29PASS'RUNNING
10KM LABEL REGIONAL95GUIOTPhilippe1584197428V1M91M00:40:47.22
10KM LABEL REGIONAL96PELISSIEREric158115982219678V2M92M00:40:49.19OSM LOMME ATHLETISME
10KM LABEL REGIONAL97LANGRENETMARC653197729V1M93M00:40:52.91
10KM LABEL REGIONAL98LASSUSQUENTIN1647198754SEM94M00:40:54.56
10KM LABEL REGIONAL99MONOTThibaud786198555SEM95M00:40:55.90
10KM LABEL REGIONAL100JAZDONCZYKREMY30018562319551V3M96M00:40:58.47US VALENCIENNES ATHLETISME
10KM LABEL REGIONAL101RICHARDDANIEL165119502V3M97M00:41:00.52
10KM LABEL REGIONAL102BARCADavid153197730V1M98M00:41:06.95
10KM LABEL REGIONAL103DEGROOTEYANNICK1369347356197031V1M99M00:41:09.38JOGGING CLUB BILLY BERCLA
10KM LABEL REGIONAL104CHRETIENFRANCOIS509270288198956SEM100M00:41:09.99US VALENCIENNES ATHLETISME
10KM LABEL REGIONAL105LEMAIREPatrick676903150819639V2M101M00:41:12.22AC VILLENEUVE D'ASCQ
10KM LABEL REGIONAL106DURAFOURJEROME496197632V1M102M00:41:14.15
10KM LABEL REGIONAL107BOQUETJohan195198557SEM103M00:41:15.40
10KM LABEL REGIONAL108NOTERDAMEManuel800198858SEM104M00:41:17.83
10KM LABEL REGIONAL109DAELMICHEL1543724324196510V2M105M00:41:21.62US MARQUETTE
10KM LABEL REGIONAL110SXAYCaroline91019772V1F5F00:41:22.09
10KM LABEL REGIONAL111GUETTIERAXEL165619972ESM106M00:41:26.15
10KM LABEL REGIONAL112TAMPIGNYEric951429913196111V2M107M00:41:26.99COURIR ENSEMBLE SNCF
10KM LABEL REGIONAL113GENSSEJeremy546198359SEM108M00:41:27.80
10KM LABEL REGIONAL114PAREINBenoit1440196412V2M109M00:41:29.30
10KM LABEL REGIONAL115CAVDARLIEROL1471197960SEM110M00:41:31.02
10KM LABEL REGIONAL116MICHELGildas776198061SEM111M00:41:33.30LILLE TRIATHLON
10KM LABEL REGIONAL117BOUTRYVALENTIN149219992JUM112M00:41:34.71
10KM LABEL REGIONAL118BULYPascal234196513V2M113M00:41:34.91WASQUEHAL TRIATHLON
10KM LABEL REGIONAL119BRIANDHUGO21920011CAM114M00:41:34.94FC BONDUES
10KM LABEL REGIONAL120DESTREZFREDERIC1930958435197733V1M115M00:41:36.18US VALENCIENNES ATHLETISME
10KM LABEL REGIONAL121PALENZUELADELPHINE1703492154519824SEF6F00:41:42.18US MARQUETTE
10KM LABEL REGIONAL122VANHAECKEOlivier964197334V1M116M00:41:46.82
10KM LABEL REGIONAL123IDZIAKCedric1506197335V1M117M00:41:49.36
10KM LABEL REGIONAL124LEPRINCEVincent1888378699197636V1M118M00:41:50.00NOUVEAU ST AMAND ETUDIANT CLUB
10KM LABEL REGIONAL125VAN-POUCKELilian1417198062SEM119M00:41:50.58
10KM LABEL REGIONAL126PETITJEANYoann829197537V1M120M00:41:52.79
10KM LABEL REGIONAL127MARTINACHEManon75219935SEF7F00:41:54.32
10KM LABEL REGIONAL128MONDONPASCAL784197138V1M121M00:41:55.09
10KM LABEL REGIONAL129DUC MAUGELaurent1257989476196839V1M122M00:41:57.77NOUVEAU ST AMAND ETUDIANT CLUB
10KM LABEL REGIONAL130MEURISSEFRANCK1053192770196314V2M123M00:41:58.23US VALENCIENNES ATHLETISME
10KM LABEL REGIONAL131ROBINNicolas1428197863SEM124M00:41:59.60
10KM LABEL REGIONAL132DHALLUINMatthieu453197740V1M125M00:42:00.17
10KM LABEL REGIONAL133DELMOTTEBenoit386197741V1M126M00:42:01.30
10KM LABEL REGIONAL134LE DROUMAGUETALEXIS1670751661198864SEM127M00:42:02.41ATHLETIC CLUB DE MARGNY LES CO
10KM LABEL REGIONAL135ETCHEPAREGauthier508198465SEM128M00:42:04.76
10KM LABEL REGIONAL136MILLEVILLEYves780198266SEM129M00:42:09.61
10KM LABEL REGIONAL137IMPENSBernard617197442V1M130M00:42:13.76JOG LEERS
10KM LABEL REGIONAL138BASSETFranck55503086156197643V1M131M00:42:14.00COURIR A COMINES
10KM LABEL REGIONAL139GRUYEZEtienne1753234566197644V1M132M00:42:15.41JOGGING AVENTURE RONCQUOISE
10KM LABEL REGIONAL140LANGLETPascal142647265219573V3M133M00:42:15.74CG HAUBOURDIN
10KM LABEL REGIONAL141LAMONTMELANIE19061565119743V1F8F00:42:19.30US TOURCOING
10KM LABEL REGIONAL142AGNERAYMATTHIEU121197745V1M134M00:42:22.65
10KM LABEL REGIONAL143LENGLETNicolas695197746V1M135M00:42:23.56
10KM LABEL REGIONAL144SERUGHETTIMICHEL434950897196847V1M136M00:42:27.89US VALENCIENNES ATHLETISME
10KM LABEL REGIONAL145KHIREDDINESAMY19229491619197348V1M137M00:42:28.03
10KM LABEL REGIONAL146TOUZETFanny93619946SEF9F00:42:28.30OWENS 36
10KM LABEL REGIONAL147LOOCKNICOLAS721197549V1M138M00:42:34.18
10KM LABEL REGIONAL148LORIDANClement724197550V1M139M00:42:36.79
10KM LABEL REGIONAL149MICHEAUXClaire136160777519857SEF10F00:42:37.81
10KM LABEL REGIONAL150LEGRANDAGNES476153163219671V2F11F00:42:39.04US MARQUETTE
10KM LABEL REGIONAL151AZZINORDINE1598196715V2M140M00:42:40.76
10KM LABEL REGIONAL152VAN CAEMERBEKEJerome1421197867SEM141M00:42:42.00
10KM LABEL REGIONAL153TITECAChristophe931196616V2M142M00:42:42.16COURIR A COMINES
10KM LABEL REGIONAL154GIBORYYann550198168SEM143M00:42:42.26
10KM LABEL REGIONAL155LOZIERDAVID1605197451V1M144M00:42:42.48
10KM LABEL REGIONAL156POISSONNIERGabriel1511197552V1M145M00:42:43.14
10KM LABEL REGIONAL157GOLDIANCEDRIC552198169SEM146M00:42:46.77
10KM LABEL REGIONAL158VERQUINOlivier1559196953V1M147M00:42:49.01
10KM LABEL REGIONAL159VANDENWILDENBERGJeremy1522198070SEM148M00:42:50.33
10KM LABEL REGIONAL160DERACHE-LAURENTCECILE188796340619838SEF12F00:42:51.57VERMELLES AC
10KM LABEL REGIONAL161DEWASTEAlexandre445198871SEM149M00:42:54.89
10KM LABEL REGIONAL162SAGARNAJOSE1454592887197154V1M150M00:42:56.19US MARQUETTE
10KM LABEL REGIONAL163DENDIEVELRomain396198972SEM151M00:42:56.81
10KM LABEL REGIONAL164HERNANDEZMathieu591198673SEM152M00:42:57.51
10KM LABEL REGIONAL165TIBERGHIENGuillaume927197455V1M153M00:42:57.55
10KM LABEL REGIONAL166DEPOILLYHerve401196717V2M154M00:42:59.40
10KM LABEL REGIONAL167BOUZIDIRACHID1666197756V1M155M00:42:59.44
10KM LABEL REGIONAL168MALLEMSalim746198174SEM156M00:43:02.16
10KM LABEL REGIONAL169DORLENCOURTHugues463196618V2M157M00:43:03.11
10KM LABEL REGIONAL170PIREGWLADYS83819869SEF13F00:43:03.27
10KM LABEL REGIONAL171DENTURCKGREGORY400198175SEM158M00:43:03.53
10KM LABEL REGIONAL172HILGERCECILE1859609600198910SEF14F00:43:06.03US MARQUETTE
10KM LABEL REGIONAL173ZAHNOUNHADIL1019197757V1M159M00:43:06.93
10KM LABEL REGIONAL174MANESSEGUILLAUME749198076SEM160M00:43:07.17
10KM LABEL REGIONAL175LAMBLINXAVIER1738264648197158V1M161M00:43:08.11OSM LOMME ATHLETISME
10KM LABEL REGIONAL176DESMETAnthony422197159V1M162M00:43:10.32
10KM LABEL REGIONAL177TROTTEINVincent1415197977SEM163M00:43:13.58
10KM LABEL REGIONAL178DOUBLECOURTARNAUD1613198578SEM164M00:43:14.46
10KM LABEL REGIONAL179COULONPATRICIA149519652V2F15F00:43:15.47
10KM LABEL REGIONAL180BIGNOTRodolphe1586198479SEM165M00:43:16.33
10KM LABEL REGIONAL181LIEDTSAdrien713198880SEM166M00:43:17.50
10KM LABEL REGIONAL182BAILLYAlban144197460V1M167M00:43:19.44
10KM LABEL REGIONAL183GRIMONPONTPierre56419963ESM168M00:43:21.52
10KM LABEL REGIONAL184VERONDelphine98519704V1F16F00:43:24.56
10KM LABEL REGIONAL185VERLAINEFABIAN1385621980197761V1M169M00:43:25.99US MARQUETTE
10KM LABEL REGIONAL186DEVLAMINCKMARC1960980438197462V1M170M00:43:27.37DAINVILLE ATHLETIC CLUB
10KM LABEL REGIONAL187HUMBERTSTEPHANE1339470613197881SEM171M00:43:31.30PLANETE RUNNING AND WALKING
10KM LABEL REGIONAL188VANHEECédric965197663V1M172M00:43:32.87
10KM LABEL REGIONAL189LOUVETMATHIS73120012CAM173M00:43:33.79
10KM LABEL REGIONAL190VERNELucie984198811SEF17F00:43:35.70
10KM LABEL REGIONAL191VIGINDavid991197364V1M174M00:43:38.51
10KM LABEL REGIONAL192PICOTSimon834198682SEM175M00:43:40.45
10KM LABEL REGIONAL193POURCEAULaurent850196865V1M176M00:43:41.79
10KM LABEL REGIONAL194DESCAMPSCharles41719964ESM177M00:43:48.69
10KM LABEL REGIONAL195PINTEGrégoire837199183SEM178M00:43:48.77
10KM LABEL REGIONAL196TAMPIGNYColleen1654787156019991JUF18F00:43:48.90AC VILLENEUVE D'ASCQ
10KM LABEL REGIONAL197RAHIMIMourad1531198484SEM179M00:43:49.53
10KM LABEL REGIONAL198VACHERANDTimothee941198285SEM180M00:43:50.34
10KM LABEL REGIONAL199LALLEMANDJeremy646198986SEM181M00:43:53.41
10KM LABEL REGIONAL200PRUDHOMMESTEPHANE1661212852197066V1M182M00:43:54.79JOGGING AVENTURE RONCQUOISE
10KM LABEL REGIONAL201PROUMENLaurent851197267V1M183M00:43:57.24
10KM LABEL REGIONAL202DARTOISDANIEL1610197568V1M184M00:43:57.79
10KM LABEL REGIONAL203GRUSONClémence565199312SEF19F00:43:58.27
10KM LABEL REGIONAL204CHANTRELRomain27619965ESM185M00:43:59.12
10KM LABEL REGIONAL205PROUVOSTThibault159020003CAM186M00:43:59.64
10KM LABEL REGIONAL206WACHEULOLIVIER14149301001197569V1M187M00:43:59.81WINGLES ATHLETIC CLUB
10KM LABEL REGIONAL207RUVELJulien883198487SEM188M00:44:01.39
10KM LABEL REGIONAL208STEINBACHPierre1547198888SEM189M00:44:01.67
10KM LABEL REGIONAL209COPPINJerome301197570V1M190M00:44:02.32
10KM LABEL REGIONAL210LAFORCERudy644196219V2M191M00:44:05.50
10KM LABEL REGIONAL211WALLARTArnaud1002197771V1M192M00:44:07.42
10KM LABEL REGIONAL212VANDEWALLEVincent961198389SEM193M00:44:08.92MONS TRIATHLON
10KM LABEL REGIONAL213VOISINThibaud998199290SEM194M00:44:09.59
10KM LABEL REGIONAL214DURANNELBENOIT15882671616196872V1M195M00:44:10.27WINGLES ATHLETIC CLUB
10KM LABEL REGIONAL215OLLIVIERHERVE196465180519544V3M196M00:44:13.61ATHLETIC CLUB FRESNOIS
10KM LABEL REGIONAL216BRUNELLaurent576499 pr228196973V1M197M00:44:14.99
10KM LABEL REGIONAL217FISSIROUALI158120014CAM198M00:44:16.97
10KM LABEL REGIONAL218MOTYMATTHIEU1926782791197991SEM199M00:44:17.20PLANETE RUNNING AND WALKING
10KM LABEL REGIONAL219DUBOISJULIE472198113SEF20F00:44:18.31
10KM LABEL REGIONAL220DESBONNETSLIONEL414197174V1M200M00:44:28.82RUNNERS DE BONDUES
10KM LABEL REGIONAL221FIÉVETThomas521198892SEM201M00:44:33.56
10KM LABEL REGIONAL222CRONAlfred318198993SEM202M00:44:35.87
10KM LABEL REGIONAL223MAITRIASJean-Paul743196320V2M203M00:44:36.59
10KM LABEL REGIONAL224CHANTRELThibaut277198794SEM204M00:44:38.69
10KM LABEL REGIONAL225HUARDJOSEPH611198695SEM205M00:44:39.47
10KM LABEL REGIONAL226JAHIERTHIBAUT1957302622199096SEM206M00:44:40.13ASPTT LILLE METROPOLE
10KM LABEL REGIONAL227THOREZBruno1029196721V2M207M00:44:40.49
10KM LABEL REGIONAL228GOSSELINSylvie180034255619673V2F21F00:44:40.87NOUVEAU ST AMAND ETUDIANT CLUB
10KM LABEL REGIONAL229RIOLS-FONCLAREStephen871198997SEM208M00:44:41.43
10KM LABEL REGIONAL230CAYREYREOlivier273197775V1M209M00:44:42.18
10KM LABEL REGIONAL231VANDEN WILDENBERGRomain958198998SEM210M00:44:42.38
10KM LABEL REGIONAL232TRIBUTAlexis152820005CAM211M00:44:43.91
10KM LABEL REGIONAL233KNAPENChrystel64019765V1F22F00:44:44.25
10KM LABEL REGIONAL234DEBACKERNathalie6735201540197914SEF23F00:44:46.05US TOURCOING
10KM LABEL REGIONAL235BELEDominique1595197076V1M212M00:44:46.89
10KM LABEL REGIONAL236MAZAArnaud760199199SEM213M00:44:47.37
10KM LABEL REGIONAL237GUINEMERSimon5681987100SEM214M00:44:48.15
10KM LABEL REGIONAL238DESREUMAUXJulien4291985101SEM215M00:44:48.37
10KM LABEL REGIONAL239MARTINOTThomas7541987102SEM216M00:44:49.49
10KM LABEL REGIONAL240ANANIEVincent129196877V1M217M00:44:50.54
10KM LABEL REGIONAL241DEBOEYThibault3471988103SEM218M00:44:52.78
10KM LABEL REGIONAL242CAPPOENCoralie254198515SEF24F00:44:52.80
10KM LABEL REGIONAL243LEMANAnthony15651980104SEM219M00:44:53.51
10KM LABEL REGIONAL244PERINLaurent824197478V1M220M00:44:54.20
10KM LABEL REGIONAL245VISINIStéphane997197079V1M221M00:44:54.36
10KM LABEL REGIONAL246LECLERCQERIC1568672671197180V1M222M00:44:54.52US VALENCIENNES ATHLETISME
10KM LABEL REGIONAL247MANSIShroff55705839750199016SEF25F00:44:54.86
10KM LABEL REGIONAL248MEYZONNADEAymeric7721991105SEM223M00:44:55.49
10KM LABEL REGIONAL249MIGNONCARL18260757791988106SEM224M00:45:09.37ASPTT LILLE METROPOLE
10KM LABEL REGIONAL250BIELAWSKINicolas1781978107SEM225M00:45:14.13
10KM LABEL REGIONAL251FAUCHILLEMathias5131984108SEM226M00:45:15.90
10KM LABEL REGIONAL252LIENARDArthur71420016CAM227M00:45:19.52
10KM LABEL REGIONAL253JOURDANTDenys1575197281V1M228M00:45:20.96
10KM LABEL REGIONAL254BADIMalik142196882V1M229M00:45:22.20
10KM LABEL REGIONAL255LIAGRECHRISTOPHE1667196983V1M230M00:45:25.90
10KM LABEL REGIONAL256MELCHOIRJean Romain7631979109SEM231M00:45:26.20
10KM LABEL REGIONAL257DUQUESNOYNicolas495197784V1M232M00:45:26.92
10KM LABEL REGIONAL258DUTHOITPierre-Yves5001987110SEM233M00:45:28.94
10KM LABEL REGIONAL259BLONDEAUCORENTIN16391988111SEM234M00:45:32.17
10KM LABEL REGIONAL260POKOISKIPHILIPPE1653195822V2M235M00:45:32.20
10KM LABEL REGIONAL261HOFFMANNAxel60620017CAM236M00:45:33.01
10KM LABEL REGIONAL262VANNESTJEREMY14721990112SEM237M00:45:34.16
10KM LABEL REGIONAL263LEFELLERégis684197485V1M238M00:45:37.57
10KM LABEL REGIONAL264SABSABZouhair15341978113SEM239M00:45:40.26
10KM LABEL REGIONAL265CARDOENMArc1589197786V1M240M00:45:41.71
10KM LABEL REGIONAL266DEZITTERGautier449197787V1M241M00:45:43.90
10KM LABEL REGIONAL267ARNALSTEENLAURENT1469947137197188V1M242M00:45:44.58US MARQUETTE
10KM LABEL REGIONAL268AISSA BENHADDADHafid1572196989V1M243M00:45:45.02
10KM LABEL REGIONAL269TIBERGHIENFabrice18125661507196623V2M244M00:45:46.04PLANETE RUNNING AND WALKING
10KM LABEL REGIONAL270SIXJulien9011990114SEM245M00:45:46.48
10KM LABEL REGIONAL271DELLAYMATHIEU166666116231987115SEM246M00:45:50.56
10KM LABEL REGIONAL272TINCHONDavid928197690V1M247M00:45:51.28
10KM LABEL REGIONAL273DESBONNETSJeremy4131978116SEM248M00:45:53.93RUNNERS DE BONDUES
10KM LABEL REGIONAL274LEFRANCQLouis6851990117SEM249M00:45:56.28
10KM LABEL REGIONAL275GOURANTONAlann5591989118SEM250M00:46:00.52
10KM LABEL REGIONAL276PENNEQUINPASCAL1758480823196024V2M251M00:46:01.57PLANETE RUNNING AND WALKING
10KM LABEL REGIONAL277KOITKAThierry641197391V1M252M00:46:02.29HENIN ENDURANCE TEAM
10KM LABEL REGIONAL278ARGATUMihai136197792V1M253M00:46:02.92
10KM LABEL REGIONAL279ALLIENNEYVES126196225V2M254M00:46:04.10ASLMG
10KM LABEL REGIONAL280DE LAVALLAZFreu340196726V2M255M00:46:04.58
10KM LABEL REGIONAL281CATTEAUNicolas269197693V1M256M00:46:07.89
10KM LABEL REGIONAL282PAYELLENicolas8191981119SEM257M00:46:07.93COURIR A COMINES
10KM LABEL REGIONAL283WAMBRERAPHAEL16041983120SEM258M00:46:08.55
10KM LABEL REGIONAL284COUSSEMENTCecile31119736V1F26F00:46:11.12
10KM LABEL REGIONAL285BOURDONLudovic2051979121SEM259M00:46:11.28
10KM LABEL REGIONAL286DEWAELEDavid444197494V1M260M00:46:11.31
10KM LABEL REGIONAL287DE QUERCIZEHugues342197395V1M261M00:46:11.88
10KM LABEL REGIONAL288MEUNIERLAURENT17531511622196896V1M262M00:46:13.06HEM ATHLETIC CLUB
10KM LABEL REGIONAL289DEVREDFrederic439197197V1M263M00:46:14.05
10KM LABEL REGIONAL290KNAPENBenoit639197498V1M264M00:46:15.67
10KM LABEL REGIONAL291GAYMAYJacques17109354419555V3M265M00:46:16.60COURIR ENSEMBLE SNCF
10KM LABEL REGIONAL292DEVILDERQUENTIN4371982122SEM266M00:46:17.40
10KM LABEL REGIONAL293ANDREBrice130197799V1M267M00:46:18.28
10KM LABEL REGIONAL294DHAEYERPALMYRE194413545219961ESF27F00:46:19.64ATHLE HALLUIN-VAL-DE-LYS
10KM LABEL REGIONAL295HOFFMANNMaxime6071977100V1M268M00:46:19.73
10KM LABEL REGIONAL296WOZNIAKANDRE1464196227V2M269M00:46:20.26
10KM LABEL REGIONAL297CZAPRAGASAMUEL3191973101V1M270M00:46:20.90
10KM LABEL REGIONAL298DELANNOYChristophe3661969102V1M271M00:46:21.43
10KM LABEL REGIONAL299BERQUÉMARC1741972103V1M272M00:46:23.89
10KM LABEL REGIONAL300BUFQUINTimothee15371976104V1M273M00:46:24.93
10KM LABEL REGIONAL301SIXNicolas15641979123SEM274M00:46:25.59
10KM LABEL REGIONAL302WEILThierry18667041009196628V2M275M00:46:25.71JOGGING AVENTURE RONCQUOISE
10KM LABEL REGIONAL303CARRECesar26020008CAM276M00:46:27.56
10KM LABEL REGIONAL304VANCOMPERNOLLEBert9541991124SEM277M00:46:28.23
10KM LABEL REGIONAL305JOVENINRémy6291991125SEM278M00:46:31.26FSLC
10KM LABEL REGIONAL306ROULLIERLOUIS87920019CAM279M00:46:32.16
10KM LABEL REGIONAL307MAGNIERJULIEN18478067381979126SEM280M00:46:33.44US VALENCIENNES ATHLETISME
10KM LABEL REGIONAL308VAN DEN BOSCHJulien14410127SEM281M00:46:33.78
10KM LABEL REGIONAL309ACCETTONEAntoine119200110CAM282M00:46:36.94
10KM LABEL REGIONAL310BEAUDELPHILIPPE14961977105V1M283M00:46:38.09
10KM LABEL REGIONAL311LEGERSEBASTIEN11695306861977106V1M284M00:46:38.84US MARQUETTE
10KM LABEL REGIONAL312COULONPatrice3091968107V1M285M00:46:39.56
10KM LABEL REGIONAL313BRABANTDELPHINE149719767V1F28F00:46:39.72
10KM LABEL REGIONAL314BRUNEELGUILLAUME16481974108V1M286M00:46:42.63
10KM LABEL REGIONAL315MOUQUETLAURENCE173665679419654V2F29F00:46:44.04CLLL ARMENTIERES
10KM LABEL REGIONAL316BILLAUTJerome1801981128SEM287M00:46:47.48
10KM LABEL REGIONAL317D'ORGEVILLEGhislain3221981129SEM288M00:46:48.08
10KM LABEL REGIONAL318PUKICAClément8531993130SEM289M00:46:51.24RUNCREW 59
10KM LABEL REGIONAL319DESMONSFrederic10961979131SEM290M00:46:51.34
10KM LABEL REGIONAL320DUPREZBeatrice49319708V1F30F00:46:52.74
10KM LABEL REGIONAL321MAESValentin7371991132SEM291M00:46:57.69
10KM LABEL REGIONAL322PARMENTIERXavier81319556V3M292M00:46:58.59
10KM LABEL REGIONAL323NYSVincent8011970109V1M293M00:46:59.77
10KM LABEL REGIONAL324MONTADORFrancois7871976110V1M294M00:47:01.47
10KM LABEL REGIONAL325VANCALSTERCorentin15161987133SEM295M00:47:03.54
10KM LABEL REGIONAL326ROUVILLOISGuillaume15211984134SEM296M00:47:04.67
10KM LABEL REGIONAL327FRAGUASebastien5291976111V1M297M00:47:05.33
10KM LABEL REGIONAL328SIMONChristophe8991969112V1M298M00:47:05.40
10KM LABEL REGIONAL329CAILLAULTLaurent2441978135SEM299M00:47:06.58
10KM LABEL REGIONAL330MERLINGAUTHIER18501517671988136SEM300M00:47:07.00AC CAMBRAI
10KM LABEL REGIONAL331MILLOTHugues7811982137SEM301M00:47:07.42
10KM LABEL REGIONAL332PAQUETNicolas8101979138SEM302M00:47:08.27
10KM LABEL REGIONAL333VAN INGELANDTAymeric9471994139SEM303M00:47:10.20
10KM LABEL REGIONAL334DHAUSSYJohn4541975113V1M304M00:47:12.19
10KM LABEL REGIONAL335BOUDENOOTJulien2021976114V1M305M00:47:12.45
10KM LABEL REGIONAL336DEREMAUXTimothée4071990140SEM306M00:47:12.90FA WASQUEHAL
10KM LABEL REGIONAL337DESTAILLEURVincent4341973115V1M307M00:47:13.17COURIR A COMINES
10KM LABEL REGIONAL338DECRUCQEdouard3511978141SEM308M00:47:13.78
10KM LABEL REGIONAL339DESANGLAISMarc142319547V3M309M00:47:16.50
10KM LABEL REGIONAL340GEGOUXPhilippe5451972116V1M310M00:47:17.68
10KM LABEL REGIONAL341OBLEDPhilippe15201969117V1M311M00:47:25.26
10KM LABEL REGIONAL342VIENNEBastien9881990142SEM312M00:47:26.38
10KM LABEL REGIONAL343DANJOUMichael3281973118V1M313M00:47:28.98
10KM LABEL REGIONAL344LENENOlivier69419719V1F31F00:47:31.30
10KM LABEL REGIONAL345ALARDJean-valère1231989143SEM314M00:47:32.24
10KM LABEL REGIONAL346BERKANERémi1721985144SEM315M00:47:32.93
10KM LABEL REGIONAL347RAMERYSebastien14548678581975119V1M316M00:47:33.36
10KM LABEL REGIONAL348DAUBRESSEDOMINIQUE1494196129V2M317M00:47:34.02
10KM LABEL REGIONAL349ROULLIERFREDERIC8781972120V1M318M00:47:34.45
10KM LABEL REGIONAL350HENINOlivier5831974121V1M319M00:47:36.80
10KM LABEL REGIONAL351NAJIHRahal1430196330V2M320M00:47:42.17
10KM LABEL REGIONAL352GARCIAAnthony5361979145SEM321M00:47:44.54
10KM LABEL REGIONAL353ALARDMarc-Alban1241992146SEM322M00:47:44.75
10KM LABEL REGIONAL354CAMPAGNEQuentin2491989147SEM323M00:47:45.49
10KM LABEL REGIONAL355RICHARDRémy8691986148SEM324M00:47:50.56
10KM LABEL REGIONAL356DOMPSINAdam1578196731V2M325M00:47:51.54
10KM LABEL REGIONAL357ANTHONEBENJAMIN13319993JUM326M00:47:52.04
10KM LABEL REGIONAL358JULLEAntoine6301985149SEM327M00:47:52.52
10KM LABEL REGIONAL359DEJARDINPaul103519956ESM328M00:47:52.53
10KM LABEL REGIONAL360ANTHONESTEPHANE1341972122V1M329M00:47:53.05
10KM LABEL REGIONAL361COTTIGNIESBaptiste30719957ESM330M00:47:54.72
10KM LABEL REGIONAL362DUTRIEZBaptiste50119968ESM331M00:47:54.96
10KM LABEL REGIONAL363BRABANTJulien2161980150SEM332M00:47:59.24
10KM LABEL REGIONAL364DELABAEREMarc1705383144819568V3M333M00:48:00.42JOGGING AVENTURE RONCQUOISE
10KM LABEL REGIONAL365MICHALSKINICOLAS7741984151SEM334M00:48:00.84
10KM LABEL REGIONAL366LAVERDUREGilles27404265819471V4M335M00:48:02.68JOGGING CLUB MONTIGNYNOIS
10KM LABEL REGIONAL367HANNEBIQUEANTHONY17932905781990152SEM336M00:48:03.35US VALENCIENNES ATHLETISME
10KM LABEL REGIONAL368OSTYNGREGORY15811518071983153SEM337M00:48:03.50PLANETE RUNNING AND WALKING
10KM LABEL REGIONAL369MAUCLAIRE ROBINAude758197310V1F32F00:48:06.94LILLE TRIATHLON
10KM LABEL REGIONAL370LECLERCQAXELLE670198017SEF33F00:48:07.79
10KM LABEL REGIONAL371MERYMERCEDES1850150769198918SEF34F00:48:07.91AC CAMBRAI
10KM LABEL REGIONAL372DENNINFrédéric3981972123V1M338M00:48:08.66
10KM LABEL REGIONAL373RODRIGUESPEGGY1003204875197611V1F35F00:48:09.36ATHLE HALLUIN-VAL-DE-LYS
10KM LABEL REGIONAL374MONGEOISFrançois7851979154SEM339M00:48:11.44
10KM LABEL REGIONAL375VILCOQCHRISTIAN9931972124V1M340M00:48:13.09
10KM LABEL REGIONAL376LOUVETCHRISTOPHE7291969125V1M341M00:48:14.42
10KM LABEL REGIONAL377DELECOURTDavid10371975126V1M342M00:48:15.36
10KM LABEL REGIONAL378CATTEAULaurent10311968127V1M343M00:48:15.49
10KM LABEL REGIONAL379DHAEYERJEAN-LAURENT4501991155SEM344M00:48:18.00
10KM LABEL REGIONAL380FOURNIER MONTGIEUXGrégoire52819959ESM345M00:48:18.70
10KM LABEL REGIONAL381HURIAUChristophe6151973128V1M346M00:48:18.83
10KM LABEL REGIONAL382GRENIERFranck5621973129V1M347M00:48:19.17
10KM LABEL REGIONAL383DUHAMELAnne-Céline482198819SEF36F00:48:19.21
10KM LABEL REGIONAL384EL HAROUNICHADIA507197820SEF37F00:48:24.11
10KM LABEL REGIONAL385LECLERCQCHRISTOPHE14531974130V1M348M00:48:25.72
10KM LABEL REGIONAL386TASSINNicolas9161971131V1M349M00:48:27.78
10KM LABEL REGIONAL387LEPEREBenoit6981977132V1M350M00:48:29.29
10KM LABEL REGIONAL388DI BARTOLOALEXANDRE155981814731970133V1M351M00:48:32.79JOGGING AVENTURE RONCQUOISE
10KM LABEL REGIONAL389HEYNDELSPatrick5971971134V1M352M00:48:33.25
10KM LABEL REGIONAL390D'HONDTGregoire3211985156SEM353M00:48:33.53
10KM LABEL REGIONAL391DELÉCAUTPatrick39219569V3M354M00:48:33.83
10KM LABEL REGIONAL392BROUCKEDidier188735227195410V3M355M00:48:34.75COURIR ENSEMBLE SNCF
10KM LABEL REGIONAL393HERLINVianney5901989157SEM356M00:48:36.76
10KM LABEL REGIONAL394DECRUCQKRYSTEL1903774352197921SEF38F00:48:41.03US MARQUETTE
10KM LABEL REGIONAL395DESREUMAUXAnaïs428199322SEF39F00:48:41.94
10KM LABEL REGIONAL396BERTIERBENOIT1641196632V2M357M00:48:44.93
10KM LABEL REGIONAL397DEWULFSerge1407196633V2M358M00:48:47.02
10KM LABEL REGIONAL398DARGIERFrédéric3311985158SEM359M00:48:50.67
10KM LABEL REGIONAL399SILVAMIGUEL15491991159SEM360M00:48:52.74
10KM LABEL REGIONAL400LEBASElisabeth1548199123SEF40F00:48:53.10
10KM LABEL REGIONAL401DEVYNCKFrederic15461974135V1M361M00:48:54.36
10KM LABEL REGIONAL402BRUWAERTFabien2291977136V1M362M00:48:55.03
10KM LABEL REGIONAL403DEI TIGLILaurent3581978160SEM363M00:48:55.11
10KM LABEL REGIONAL404MEYZONNADEGaëtan7731987161SEM364M00:48:56.13
10KM LABEL REGIONAL405DELEZENNEFABRICE3811970137V1M365M00:48:56.89
10KM LABEL REGIONAL406THEYSPascal14571986162SEM366M00:48:57.68
10KM LABEL REGIONAL407DANSETTEEdouard3291971138V1M367M00:49:00.03
10KM LABEL REGIONAL408COUVREURPatrick314195934V2M368M00:49:01.10
10KM LABEL REGIONAL409RYCKEBOERLaurence88419655V2F41F00:49:01.87
10KM LABEL REGIONAL410DEWAVRINChristine1594197512V1F42F00:49:03.69
10KM LABEL REGIONAL411KAMPLaurent6311971139V1M369M00:49:03.72
10KM LABEL REGIONAL412DELRUEDavid15041969140V1M370M00:49:04.64FABULOUS TEAM
10KM LABEL REGIONAL413BOUTRYEric1542196235V2M371M00:49:05.00
10KM LABEL REGIONAL414LEANDRIAntoine6651978163SEM372M00:49:05.62
10KM LABEL REGIONAL415REMYFRANCOIS8631981164SEM373M00:49:05.68
10KM LABEL REGIONAL416HONORELouis6091987165SEM374M00:49:06.22
10KM LABEL REGIONAL417ITIEREric619196336V2M375M00:49:06.92
10KM LABEL REGIONAL418VACHEYNicolas9421983166SEM376M00:49:07.27
10KM LABEL REGIONAL419THIRIEZDenis9231969141V1M377M00:49:08.71
10KM LABEL REGIONAL420LOUVETXavier7321975142V1M378M00:49:09.91
10KM LABEL REGIONAL421JEANMAXIME6241985167SEM379M00:49:10.25LILLE TRIATHLON
10KM LABEL REGIONAL422GAUDRONLaurent5391982168SEM380M00:49:10.30
10KM LABEL REGIONAL423BUTINCedric2371975143V1M381M00:49:10.90
10KM LABEL REGIONAL424CASTELEYNDavid2641978169SEM382M00:49:11.96
10KM LABEL REGIONAL425WATTELMargaux1006198924SEF43F00:49:12.15FF HOCKEY
10KM LABEL REGIONAL426GAUCIJoel12657175381973144V1M383M00:49:12.89CS IBM NORD NORMANDIE
10KM LABEL REGIONAL427DELMARREVIRGINIE1805547385197113V1F44F00:49:13.69CLLL ARMENTIERES
10KM LABEL REGIONAL428PHILIPPEDidier831196137V2M384M00:49:15.85
10KM LABEL REGIONAL429DIONISLUC1499196538V2M385M00:49:17.36
10KM LABEL REGIONAL430VANNESTJULIEN1474200111CAM386M00:49:18.48
10KM LABEL REGIONAL431COUVREURAurélien3131985170SEM387M00:49:18.59
10KM LABEL REGIONAL432AMIRIBastien1281984171SEM388M00:49:18.76
10KM LABEL REGIONAL433DEJARDINJean-Yves1036196639V2M389M00:49:20.40
10KM LABEL REGIONAL434COUPEZVincent14451981172SEM390M00:49:21.33
10KM LABEL REGIONAL435OBINRodolphe8021980173SEM391M00:49:22.19
10KM LABEL REGIONAL436PETITVincent8271979174SEM392M00:49:22.43
10KM LABEL REGIONAL437PETITMarc825196340V2M393M00:49:22.96
10KM LABEL REGIONAL438TORTELLIERRichard933196741V2M394M00:49:25.80
10KM LABEL REGIONAL439DELCROIXSebastien3781974145V1M395M00:49:27.39
10KM LABEL REGIONAL440BAQUEAndre149196142V2M396M00:49:29.29
10KM LABEL REGIONAL441ECHEVINMikaël5041981175SEM397M00:49:29.73
10KM LABEL REGIONAL442LEHUEROMUALD16281980176SEM398M00:49:30.28
10KM LABEL REGIONAL443MORDACQNICOLAS7881982177SEM399M00:49:31.09
10KM LABEL REGIONAL444CABYCyprien239200112CAM400M00:49:32.22
10KM LABEL REGIONAL445BARAHMélissa150199325SEF45F00:49:34.69
10KM LABEL REGIONAL446VANDAELEDOROTHEE1861104955197414V1F46F00:49:35.03US TOURCOING
10KM LABEL REGIONAL447DEBUFDAVID15991970146V1M401M00:49:38.36
10KM LABEL REGIONAL448DESCAMPSAnthony4151987178SEM402M00:49:41.74
10KM LABEL REGIONAL449DEBOEYMaxime3461986179SEM403M00:49:42.88
10KM LABEL REGIONAL450SENGEZGilles896196143V2M404M00:49:44.16
10KM LABEL REGIONAL451LOUVETLuc7301978180SEM405M00:49:46.62
10KM LABEL REGIONAL452YAYAJérémy10181978181SEM406M00:49:46.66
10KM LABEL REGIONAL453BOUTOILLEGaelle213198226SEF47F00:49:46.77
10KM LABEL REGIONAL454SANCHEZJOSE14541987182SEM407M00:49:47.77JOGGING AVENTURE RONCQUOISE
10KM LABEL REGIONAL455ALLOUCHERYJean-Luc1271968147V1M408M00:49:58.14
10KM LABEL REGIONAL456ROUSSEAUXNicolas14111986183SEM409M00:50:00.19
10KM LABEL REGIONAL457RAYNALThibaut8601982184SEM410M00:50:01.60
10KM LABEL REGIONAL458POTTIEBenjamin15321981185SEM411M00:50:03.12
10KM LABEL REGIONAL459DOISYMarc-Aymeric4611982186SEM412M00:50:05.13
10KM LABEL REGIONAL460LOTIGIEGery1416196344V2M413M00:50:05.85
10KM LABEL REGIONAL461MAHIEUCécile73919972ESF48F00:50:08.67
10KM LABEL REGIONAL462COSTERobert306195011V3M414M00:50:10.49
10KM LABEL REGIONAL463DELPORTEFrancois14561971148V1M415M00:50:10.89
10KM LABEL REGIONAL464BORDELOUPNicolas1961980187SEM416M00:50:11.27
10KM LABEL REGIONAL465DOUAYMaxime4651979188SEM417M00:50:12.34
10KM LABEL REGIONAL466RAFIDISONOlivier??????8571970149V1M418M00:50:14.47
10KM LABEL REGIONAL467FOULONWILLY16241978189SEM419M00:50:15.95
10KM LABEL REGIONAL468BOCQUETERIC1871975150V1M420M00:50:18.47
10KM LABEL REGIONAL469BARONFlore155199127SEF49F00:50:19.84
10KM LABEL REGIONAL470LOGECLEMENT16491985190SEM421M00:50:22.56
10KM LABEL REGIONAL471LEFEBVREELODIE1715069678197315V1F50F00:50:23.66US MARQUETTE
10KM LABEL REGIONAL472CHAUVELJean-François2811985191SEM422M00:50:24.09
10KM LABEL REGIONAL473STELANDREFrancois14521972151V1M423M00:50:27.62
10KM LABEL REGIONAL474BOCQUETCorentin1861987192SEM424M00:50:29.37
10KM LABEL REGIONAL475DUCOULOMBIERBenoit4801974152V1M425M00:50:30.89
10KM LABEL REGIONAL476GRIMBERTMELODIE290706563199028SEF51F00:50:31.64AC VILLENEUVE D'ASCQ
10KM LABEL REGIONAL477MUYLLAERTNicolas7951984193SEM426M00:50:33.40
10KM LABEL REGIONAL478ROUSSEAUPascal7024988801970153V1M427M00:50:33.44COURIR ENSEMBLE SNCF
10KM LABEL REGIONAL479DELSINNELouis389199510ESM428M00:50:36.44
10KM LABEL REGIONAL480PATTEJulien8171990194SEM429M00:50:37.55
10KM LABEL REGIONAL481DELAHAYEVincent3641968154V1M430M00:50:45.69
10KM LABEL REGIONAL482DE FREITASAntonio146576615571971155V1M431M00:50:52.94US TOURCOING
10KM LABEL REGIONAL483BOURLETSophie20919676V2F52F00:50:54.00
10KM LABEL REGIONAL484GALLEGOJesus9413391541195945V2M432M00:50:55.45US TOURCOING
10KM LABEL REGIONAL485BIGOTMarine179199029SEF53F00:50:58.54
10KM LABEL REGIONAL486DEPOORTERFrancois4031978195SEM433M00:50:58.76
10KM LABEL REGIONAL487BASTIENAndre15101989196SEM434M00:50:59.34
10KM LABEL REGIONAL488DEPOORTERDamien4021977156V1M435M00:50:59.49
10KM LABEL REGIONAL489OLIVIERRodolphe8041976157V1M436M00:51:00.20
10KM LABEL REGIONAL490BERGEMCharlotte171198730SEF54F00:51:00.29
10KM LABEL REGIONAL491RENONCOURTThibaut8651989197SEM437M00:51:01.13
10KM LABEL REGIONAL492CORTIANAMarc3051976158V1M438M00:51:01.37
10KM LABEL REGIONAL493CLEMENTELS1658196916V1F55F00:51:01.48
10KM LABEL REGIONAL494BORNIERFlorian198199711ESM439M00:51:03.62
10KM LABEL REGIONAL495MARESCAUXPASCAL1603196646V2M440M00:51:04.42
10KM LABEL REGIONAL496DELATTRELAURENCE1914711372197117V1F56F00:51:06.03US MARQUETTE
10KM LABEL REGIONAL497DAUCHEZDavid1425196747V2M441M00:51:08.76
10KM LABEL REGIONAL498DESCAMPSThomas4191974159V1M442M00:51:08.84
10KM LABEL REGIONAL499?DOSSARD#5800325800320198SEM443M00:51:09.05
10KM LABEL REGIONAL500LAURENTJean-baptiste6561987199SEM444M00:51:09.46
10KM LABEL REGIONAL501MERIAUXJEAN-BAPTISTE7661969160V1M445M00:51:13.33
10KM LABEL REGIONAL502CLERCAntoine292195948V2M446M00:51:13.35
10KM LABEL REGIONAL503FABRICIOGabriel5101988200SEM447M00:51:14.04
10KM LABEL REGIONAL504ACCETTONEBruno1201968161V1M448M00:51:16.27
10KM LABEL REGIONAL505BITTONathalie1409196818V1F57F00:51:16.70
10KM LABEL REGIONAL506DHAEYERJean-Christophe451196649V2M449M00:51:18.20
10KM LABEL REGIONAL507FOISSEYMARIE1655199431SEF58F00:51:18.24
10KM LABEL REGIONAL508DEJONCKÈREOlivier359196550V2M450M00:51:20.53
10KM LABEL REGIONAL509LUFAUTerry7341990201SEM451M00:51:20.96
10KM LABEL REGIONAL510COCHINERIC1839941295196551V2M452M00:51:21.85PLANETE RUNNING AND WALKING
10KM LABEL REGIONAL511DELAHOUSSEFrederic14670521406196752V2M453M00:51:23.52US MARQUETTE
10KM LABEL REGIONAL512PETITJEAN NÉE HERRERA MONTIELSusana830197519V1F59F00:51:23.52
10KM LABEL REGIONAL513BLAECKEOlivier1821971162V1M454M00:51:25.20
10KM LABEL REGIONAL514CANDELLEMarion251198532SEF60F00:51:27.37
10KM LABEL REGIONAL515JACQUEMAIREAmélie620197520V1F61F00:51:29.40
10KM LABEL REGIONAL516BOURGOISRemi14011981202SEM455M00:51:32.67
10KM LABEL REGIONAL517DELANNOYVincent3691973163V1M456M00:51:32.86
10KM LABEL REGIONAL518PEYRODIERemy1515199512ESM457M00:51:33.28
10KM LABEL REGIONAL519VARGADaniel9681973164V1M458M00:51:33.66
10KM LABEL REGIONAL520MOERMANNAlexandre156910651V5M459M00:51:34.89
10KM LABEL REGIONAL521GOBERTAnthony15051985203SEM460M00:51:35.01
10KM LABEL REGIONAL522THORELGUILLAUME9251988204SEM461M00:51:37.27OWENS 36
10KM LABEL REGIONAL523WATTINNEMartin10081981205SEM462M00:51:40.16
10KM LABEL REGIONAL524WATTINNEArnaud10071974165V1M463M00:51:40.32
10KM LABEL REGIONAL525?DOSSARD#4414410206SEM464M00:51:41.25
10KM LABEL REGIONAL526FLIPOGONZAGUE5221974166V1M465M00:51:42.28
10KM LABEL REGIONAL527CATTEAUAlexis2661978207SEM466M00:51:43.66
10KM LABEL REGIONAL528BOULANGERPhilippe204196453V2M467M00:51:44.96
10KM LABEL REGIONAL529DEMUYNCKOlivier3951972167V1M468M00:51:45.17
10KM LABEL REGIONAL530NORTIERLuc7981971168V1M469M00:51:45.18
10KM LABEL REGIONAL531LORTHOISPierre7251987208SEM470M00:51:46.52
10KM LABEL REGIONAL532VERRECASCEDRIC1482196754V2M471M00:51:47.08
10KM LABEL REGIONAL533MICHOTMathieu7771985209SEM472M00:51:47.47
10KM LABEL REGIONAL534BANGOURAMohamed1432200013CAM473M00:51:47.66
10KM LABEL REGIONAL535BERTEZMarlene175199233SEF62F00:51:48.03
10KM LABEL REGIONAL536BALCAENBruno146196655V2M474M00:51:48.65
10KM LABEL REGIONAL537CARABIOLNICOLAS16541976169V1M475M00:51:49.42
10KM LABEL REGIONAL538WALLARTBénédicte1003197521V1F63F00:51:49.55
10KM LABEL REGIONAL539WATINEBlandine1514199334SEF64F00:51:49.65
10KM LABEL REGIONAL540BOEYAERTRene190195956V2M476M00:51:49.76
10KM LABEL REGIONAL541ROUSSELOT-DOISYAngélique881197622V1F65F00:51:50.14
10KM LABEL REGIONAL542POLLETJean-Guillaume8461982210SEM477M00:51:50.57
10KM LABEL REGIONAL543KELLERXAVIER13724936321975170V1M478M00:51:50.87US MARQUETTE
10KM LABEL REGIONAL544TROLETVANESSA1390835937197835SEF66F00:51:51.35US MARQUETTE
10KM LABEL REGIONAL545POULAINThibaut8481987211SEM479M00:51:52.27
10KM LABEL REGIONAL546VARLETLaurence96919657V2F67F00:51:52.97
10KM LABEL REGIONAL547RICHARDSTEPHANE1116126870196357V2M480M00:51:54.62RONCHIN ATHLETIC CLUB
10KM LABEL REGIONAL548PILLEYvon836195412V3M481M00:51:55.26
10KM LABEL REGIONAL549CABYDamien2401971171V1M482M00:51:58.70
10KM LABEL REGIONAL550LORSINBLANDINE1460196923V1F68F00:52:04.50
10KM LABEL REGIONAL551SUBTSXAVIER14591969172V1M483M00:52:04.50
10KM LABEL REGIONAL552LECHERFGREGORY6691971173V1M484M00:52:05.72
10KM LABEL REGIONAL553DELANNAYFrederic15921978212SEM485M00:52:07.96
10KM LABEL REGIONAL554LAUNAYMarina65519963ESF69F00:52:10.03
10KM LABEL REGIONAL555FOREChristine52619598V2F70F00:52:10.93
10KM LABEL REGIONAL556NICOLIChristian797196258V2M486M00:52:12.01
10KM LABEL REGIONAL557DEVREDVIRGINIE440197624V1F71F00:52:12.37
10KM LABEL REGIONAL558DAILLYLaurent10381969174V1M487M00:52:12.66
10KM LABEL REGIONAL559CABANELLASMICHEL2381971175V1M488M00:52:15.11
10KM LABEL REGIONAL560LEROUGEValerie70219679V2F72F00:52:17.11
10KM LABEL REGIONAL561BAXThierry478742160196659V2M489M00:52:18.06CS IBM NORD NORMANDIE
10KM LABEL REGIONAL562PARRAElie8141989213SEM490M00:52:20.33
10KM LABEL REGIONAL563DESBONNETSAmandine412198136SEF73F00:52:28.04
10KM LABEL REGIONAL564LOIGEROTStéphanie720198337SEF74F00:52:28.87
10KM LABEL REGIONAL565WASTYNRémi10041986214SEM491M00:52:31.67
10KM LABEL REGIONAL566CAPONPascalt 303024253195960V2M492M00:52:33.20
10KM LABEL REGIONAL567BROCHARDFranck2251977176V1M493M00:52:36.57
10KM LABEL REGIONAL568WYNDAELEMarc103919412V4M494M00:52:37.50
10KM LABEL REGIONAL569DECHESAMANDINE349198538SEF75F00:52:38.29
10KM LABEL REGIONAL570DELSINNEThibaut3901991215SEM495M00:52:41.04
10KM LABEL REGIONAL571PIERARTThomas8351989216SEM496M00:52:41.42
10KM LABEL REGIONAL572FATOUSylvain5111982217SEM497M00:52:41.92
10KM LABEL REGIONAL573DEBONNEMATTHIEU3481975177V1M498M00:52:44.23
10KM LABEL REGIONAL574DELMASJEAN PAUL16431972178V1M499M00:52:44.97
10KM LABEL REGIONAL575CHIARENZACataldo283196461V2M500M00:52:51.17
10KM LABEL REGIONAL576BATAILLEBERNARD1480196062V2M501M00:52:53.85
10KM LABEL REGIONAL577MARLOTDEBORAH1615199139SEF76F00:52:54.02
10KM LABEL REGIONAL578COISNESEBASTIEN14681976179V1M502M00:52:56.03
10KM LABEL REGIONAL579DHALLUINLAURENT14671972180V1M503M00:52:56.08
10KM LABEL REGIONAL580BOCQUETLukas189200114CAM504M00:52:56.57
10KM LABEL REGIONAL581VANDERMMEERSCHTHIERRY1469195863V2M505M00:52:56.70ATHLE HALLUIN-VAL-DE-LYS
10KM LABEL REGIONAL582VIROLLAUDAnais995198740SEF77F00:52:57.15
10KM LABEL REGIONAL583LARGILLIERDominique11522451538196464V2M506M00:52:57.30JOGGING AVENTURE RONCQUOISE
10KM LABEL REGIONAL584VERQUINSabine1558196825V1F78F00:53:00.29
10KM LABEL REGIONAL585WILLEMSFRANCOIS1481196465V2M507M00:53:01.91
10KM LABEL REGIONAL586DUSAUTOIRJean-Yves10411973181V1M508M00:53:02.16
10KM LABEL REGIONAL587CALLAERTDOROTHEE1412701247197126V1F79F00:53:02.18US MARQUETTE
10KM LABEL REGIONAL588VERLAINEDANIEL1763294979195113V3M509M00:53:02.27US MARQUETTE
10KM LABEL REGIONAL589SOUGNIEZJean-Baptiste9071975182V1M510M00:53:03.99
10KM LABEL REGIONAL590SALAMONEANTHONY1640199513ESM511M00:53:06.22
10KM LABEL REGIONAL591HENNIONHarry15351994218SEM512M00:53:06.66
10KM LABEL REGIONAL592VANDECASTEELEGuillaume9571983219SEM513M00:53:07.16
10KM LABEL REGIONAL593FENETPierre5151979220SEM514M00:53:07.74
10KM LABEL REGIONAL594AUBRYAURELIE139198841SEF80F00:53:09.31
10KM LABEL REGIONAL595WYPOREKStefan10171968183V1M515M00:53:09.59
10KM LABEL REGIONAL596DESCAMPSSophie418199142SEF81F00:53:10.43
10KM LABEL REGIONAL597RICCIMarc508500868195014V3M516M00:53:13.46COURIR ENSEMBLE SNCF
10KM LABEL REGIONAL598TYBERGHEINMyriam17305693919531V3F82F00:53:15.63JOGGING AVENTURE RONCQUOISE
10KM LABEL REGIONAL599RIBEIRO MACHADOCarlos8671980221SEM517M00:53:17.63
10KM LABEL REGIONAL600LALOYERBertrand6471974184V1M518M00:53:19.40
10KM LABEL REGIONAL601DECOUDUNALEXANDRA1487199143SEF83F00:53:20.34
10KM LABEL REGIONAL602DELATTREFrançois3701980222SEM519M00:53:21.47
10KM LABEL REGIONAL603CARTONFrédéric2621975185V1M520M00:53:22.35
10KM LABEL REGIONAL604AERNOUTMichel6133611493196166V2M521M00:53:26.47JOGGING AVENTURE RONCQUOISE
10KM LABEL REGIONAL605MALEUVRESébastien7441972186V1M522M00:53:27.39
10KM LABEL REGIONAL606VAN MEENINFRANCK9481973187V1M523M00:53:27.45
10KM LABEL REGIONAL607DELLOYENicolas384195115V3M524M00:53:28.06
10KM LABEL REGIONAL608REGNIERMathieu8611979223SEM525M00:53:28.15
10KM LABEL REGIONAL609DELATTREJULIE371198444SEF84F00:53:28.24
10KM LABEL REGIONAL610DESMAZIERESFranck4211974188V1M526M00:53:28.84
10KM LABEL REGIONAL611CAPELLEChristelle1376216252196827V1F85F00:53:29.04JOGGING AVENTURE RONCQUOISE
10KM LABEL REGIONAL612CHATILIEZAlain1539195016V3M527M00:53:30.69
10KM LABEL REGIONAL613MIEYEVILLEArnaud7781977189V1M528M00:53:32.84
10KM LABEL REGIONAL614PAINSETConstance809199245SEF86F00:53:33.49
10KM LABEL REGIONAL615DESTAILLEURCharlotte431198846SEF87F00:53:36.10
10KM LABEL REGIONAL616LEMAHIEUMaxime15821984224SEM529M00:53:36.27
10KM LABEL REGIONAL617LE BIHANCeline1583198847SEF88F00:53:36.31
10KM LABEL REGIONAL618VOREUXClément10001988225SEM530M00:53:36.44
10KM LABEL REGIONAL619DELABYOLIVIER3631975190V1M531M00:53:36.80
10KM LABEL REGIONAL620SOMMELETValerie904197948SEF89F00:53:39.32
10KM LABEL REGIONAL621DEKONINCKSTEPHANE16611973191V1M532M00:53:39.34
10KM LABEL REGIONAL622CALDERINClaire1563198449SEF90F00:53:40.02
10KM LABEL REGIONAL623DUBRUNFAUTMarc473196767V2M533M00:53:41.67
10KM LABEL REGIONAL624CATTEAUVincent270196568V2M534M00:53:43.64
10KM LABEL REGIONAL625VANDAELELaurence956197028V1F91F00:53:45.35
10KM LABEL REGIONAL626DELCOURClémence376199350SEF92F00:53:46.16
10KM LABEL REGIONAL627ROUXHélène882198651SEF93F00:53:46.23
10KM LABEL REGIONAL628GAUTHIEZFrédéric5401968192V1M535M00:53:47.81
10KM LABEL REGIONAL629LEJEUNESébastien6891987226SEM536M00:53:48.37
10KM LABEL REGIONAL630LAUNAYJérémy6541993227SEM537M00:53:49.48
10KM LABEL REGIONAL631DELIGNEJérémy3831984228SEM538M00:53:53.61
10KM LABEL REGIONAL632MALFOYJulien7451981229SEM539M00:53:53.88
10KM LABEL REGIONAL633THERYDOROTHEE1774052918196710V2F94F00:53:56.46JOGGING AVENTURE RONCQUOISE
10KM LABEL REGIONAL634DEBEAUPUISPhilippe3451979230SEM540M00:53:58.82
10KM LABEL REGIONAL635DELTETEPHILIPPE391195517V3M541M00:53:59.48
10KM LABEL REGIONAL636HORNPHILIPPE610196069V2M542M00:53:59.68
10KM LABEL REGIONAL637LEONARDMathieu6961980231SEM543M00:54:00.34
10KM LABEL REGIONAL638THIRIEZJerome9241974193V1M544M00:54:00.66
10KM LABEL REGIONAL639PATROPauline1512199052SEF95F00:54:02.41
10KM LABEL REGIONAL640BEURRIERFranck14191977194V1M545M00:54:03.26
10KM LABEL REGIONAL641AUDIGNONSébastien1401972195V1M546M00:54:04.43
10KM LABEL REGIONAL642HENNEUSEGregory5861971196V1M547M00:54:04.47
10KM LABEL REGIONAL643HAUSPIEDMickaël5811978232SEM548M00:54:05.79
10KM LABEL REGIONAL644BEGHINRodolphe1513196370V2M549M00:54:06.54
10KM LABEL REGIONAL645BOLLAERTRIK1620196171V2M550M00:54:07.71
10KM LABEL REGIONAL646HENONANTOINE5881972197V1M551M00:54:09.73
10KM LABEL REGIONAL647HENNEBICQMaxime5841981233SEM552M00:54:09.77
10KM LABEL REGIONAL648BEKAERTChristophe1661971198V1M553M00:54:09.99
10KM LABEL REGIONAL649CATRYCharlotte1413197953SEF96F00:54:10.34
10KM LABEL REGIONAL650SADAUNEStephane14051977199V1M554M00:54:11.25
10KM LABEL REGIONAL651BOURLEZBENOIT14581970200V1M555M00:54:12.62
10KM LABEL REGIONAL652FEDJKHAIBRAHIM144140615731968201V1M556M00:54:14.14PLANETE RUNNING AND WALKING
10KM LABEL REGIONAL653BOCQUETFrédéric1881970202V1M557M00:54:15.06
10KM LABEL REGIONAL654GOUTASJosé561196472V2M558M00:54:15.22
10KM LABEL REGIONAL655LEFEBVREChristophe1439196373V2M559M00:54:17.39
10KM LABEL REGIONAL656DURETETEDamien498196274V2M560M00:54:18.59
10KM LABEL REGIONAL657GARENAUXDOMINIQUE1470194918V3M561M00:54:18.83
10KM LABEL REGIONAL658SENCHRISNA1461198054SEF97F00:54:20.38
10KM LABEL REGIONAL659DE CEULENEEREddy3341975203V1M562M00:54:21.31
10KM LABEL REGIONAL660DELCROIXBarbara377197129V1F98F00:54:23.70
10KM LABEL REGIONAL661DESMETDAMIEN4231974204V1M563M00:54:25.01
10KM LABEL REGIONAL662MOMONTJean paul783196475V2M564M00:54:25.56
10KM LABEL REGIONAL663CARRECaroline259197330V1F99F00:54:26.67
10KM LABEL REGIONAL664DERVYNOlivier409196776V2M565M00:54:28.26
10KM LABEL REGIONAL665WYPLATAVirginie1016198855SEF100F00:54:29.08
10KM LABEL REGIONAL666QUENEHENDAVID19416438541968205V1M566M00:54:30.12PLANETE RUNNING AND WALKING
10KM LABEL REGIONAL667GORRIQUERGuillaume5551991234SEM567M00:54:33.91
10KM LABEL REGIONAL668LECLERCQPauline674199356SEF101F00:54:34.02
10KM LABEL REGIONAL669ECHEVINNicolas5051978235SEM568M00:54:34.68
10KM LABEL REGIONAL670HIDOCQVanessa598197857SEF102F00:54:34.88
10KM LABEL REGIONAL671DEKAEZEMACKERJérôme3611985236SEM569M00:54:35.58
10KM LABEL REGIONAL672BRINONEmeline223198958SEF103F00:54:37.66
10KM LABEL REGIONAL673WILMARTSophie1011197959SEF104F00:54:38.86
10KM LABEL REGIONAL674LEONARDStephanie697198060SEF105F00:54:41.33
10KM LABEL REGIONAL675CONEIMPascal2981978237SEM570M00:54:44.08
10KM LABEL REGIONAL676HUYGENSDominique616196477V2M571M00:54:45.62
10KM LABEL REGIONAL677LAVIGOGNELaurent10401968206V1M572M00:54:46.41
10KM LABEL REGIONAL678CORNILLONGhislain3041972207V1M573M00:54:47.15
10KM LABEL REGIONAL679DHAUSSYVincent45519994JUM574M00:54:48.15
10KM LABEL REGIONAL680MARCHANDHerve14371968208V1M575M00:54:48.26
10KM LABEL REGIONAL681VIENNEGrégoire9891984238SEM576M00:54:50.01
10KM LABEL REGIONAL682VAN MEENINIsabelle949197231V1F106F00:54:50.83
10KM LABEL REGIONAL683BRICHEMarianne222195811V2F107F00:54:52.22
10KM LABEL REGIONAL684LEMAIRECatherine1949692061SEF108F00:54:53.54
10KM LABEL REGIONAL685PAYELLEVILLEAntoine8201978239SEM577M00:54:54.17
10KM LABEL REGIONAL686JOUAUDBruno627196578V2M578M00:54:54.70
10KM LABEL REGIONAL687OBLEDLucile1518196932V1F109F00:54:54.89
10KM LABEL REGIONAL688VISEUXMarie dominique996196412V2F110F00:54:56.01
10KM LABEL REGIONAL689LEBEURRENicolas6661984240SEM579M00:54:56.31
10KM LABEL REGIONAL690DRUELLESandrine469197133V1F111F00:54:57.28
10KM LABEL REGIONAL691WOZNIAKMaxime1015199514ESM580M00:54:59.13
10KM LABEL REGIONAL692LOOSVELDConstance723199062SEF112F00:55:01.27
10KM LABEL REGIONAL693SCALVENZIRenaud8931981241SEM581M00:55:01.61
10KM LABEL REGIONAL694DUPIREEmilie489198263SEF113F00:55:03.11
10KM LABEL REGIONAL695DALLA MONTA'LORENZO325195979V2M582M00:55:03.62
10KM LABEL REGIONAL696TONDERCorinne932196513V2F114F00:55:05.22
10KM LABEL REGIONAL697OLIVIERAnne Sophie803197334V1F115F00:55:07.30
10KM LABEL REGIONAL698BANACHAUDREY147198064SEF116F00:55:07.46
10KM LABEL REGIONAL699BERAULTLoic1691975209V1M583M00:55:09.23
10KM LABEL REGIONAL700DENISYANNICK14851969210V1M584M00:55:10.84
10KM LABEL REGIONAL701BERTIERCORENTIN164219995JUM585M00:55:11.30
10KM LABEL REGIONAL702DESOUSSEAUXALEXANDRE4241979242SEM586M00:55:11.50
10KM LABEL REGIONAL703PAVARDLydie818198465SEF117F00:55:11.82
10KM LABEL REGIONAL704VANESSEXavier9631979243SEM587M00:55:14.67
10KM LABEL REGIONAL705BOULENPACO14981992244SEM588M00:55:17.17
10KM LABEL REGIONAL706CATTEAUChristophe268196480V2M589M00:55:18.68
10KM LABEL REGIONAL707DUPONTSebastien15701969211V1M590M00:55:18.70
10KM LABEL REGIONAL708TYRANVirginie940199266SEF118F00:55:19.47
10KM LABEL REGIONAL709NONQUEVincent1426196681V2M591M00:55:21.43
10KM LABEL REGIONAL710DERVYNSabine410067SEF119F00:55:21.81
10KM LABEL REGIONAL711DELESCLUSESeverine380197635V1F120F00:55:22.96
10KM LABEL REGIONAL712JOCHYMSManon625199368SEF121F00:55:23.05
10KM LABEL REGIONAL713DURANDelphine497197869SEF122F00:55:24.01
10KM LABEL REGIONAL714COURCHELLEEmmanuelle310197636V1F123F00:55:24.97
10KM LABEL REGIONAL715LOTTIAUXAlice727198670SEF124F00:55:25.48
10KM LABEL REGIONAL716DE LAFORCADELaetitia339198071SEF125F00:55:30.99
10KM LABEL REGIONAL717CORBEAUBruno303196582V2M592M00:55:31.78
10KM LABEL REGIONAL718VERHAEGHEPatrick977195719V3M593M00:55:31.91
10KM LABEL REGIONAL719HERNIEJean Luc179209592196283V2M594M00:55:32.45
10KM LABEL REGIONAL720CARONLaurie258199072SEF126F00:55:34.67
10KM LABEL REGIONAL721COULOMRémi3081974212V1M595M00:55:35.82
10KM LABEL REGIONAL722CHOLLIERDorothée286198473SEF127F00:55:41.53
10KM LABEL REGIONAL723MAHUZIERROMARIC7401978245SEM596M00:55:41.83
10KM LABEL REGIONAL724CASTELAINCharles2631985246SEM597M00:55:42.56
10KM LABEL REGIONAL725HOSTEFREDERIC1602196584V2M598M00:55:43.01
10KM LABEL REGIONAL726LEFEBVREMarie680199174SEF128F00:55:43.33
10KM LABEL REGIONAL727DOUIN-FLAMENTNathalie467196414V2F129F00:55:43.58
10KM LABEL REGIONAL728GHESTEMOrlane54919974ESF130F00:55:43.97
10KM LABEL REGIONAL729CACHERATThierryt3008592421971213V1M599M00:55:44.52
10KM LABEL REGIONAL730MELLETClémentine764199075SEF131F00:55:48.63
10KM LABEL REGIONAL731BITTOUBoris1972141811969214V1M600M00:55:49.17CS IBM NORD NORMANDIE
10KM LABEL REGIONAL732VAN BELLEGEMGermain9441984247SEM601M00:55:49.89
10KM LABEL REGIONAL733LELONGDidier1424195520V3M602M00:55:50.41
10KM LABEL REGIONAL734RIQUETAlain Jerome8721973215V1M603M00:55:50.82
10KM LABEL REGIONAL735PODVINCELINE840198776SEF132F00:55:51.06
10KM LABEL REGIONAL736LEMANJean-Christophe14180248SEM604M00:55:53.26
10KM LABEL REGIONAL737MEYNETLAURENT7711968216V1M605M00:55:53.40
10KM LABEL REGIONAL738ARUTKINOlivier15241968217V1M606M00:55:55.93
10KM LABEL REGIONAL739VANDOORNEFranky962196085V2M607M00:55:57.54
10KM LABEL REGIONAL740CATTEAUANDRE26519463V4M608M00:55:58.24JOGGING CLUB DE FRELINGHIEN
10KM LABEL REGIONAL741BORNIERJean-Philippe199196486V2M609M00:55:58.50
10KM LABEL REGIONAL742LE RÉGENTCharles-Henri6641982249SEM610M00:55:59.39
10KM LABEL REGIONAL743POLLETLoic14461972218V1M611M00:56:02.46
10KM LABEL REGIONAL744RIBEIROClémence866198677SEF133F00:56:02.90
10KM LABEL REGIONAL745DUBOISAntonin4711982250SEM612M00:56:02.99
10KM LABEL REGIONAL746POLLETJUSTINE1486199078SEF134F00:56:05.02
10KM LABEL REGIONAL747BAEYENSGregory17420471431977219V1M613M00:56:05.57
10KM LABEL REGIONAL748BRABANTTheophile1431199715ESM614M00:56:06.15
10KM LABEL REGIONAL749DEKAEZEMACKERChristophe3601979251SEM615M00:56:06.87
10KM LABEL REGIONAL750BRUNIAUXJEAN FRANCOIS19176851463196187V2M616M00:56:09.02AC VILLENEUVE D'ASCQ
10KM LABEL REGIONAL751DELSINNEFrançois3881972220V1M617M00:56:13.17
10KM LABEL REGIONAL752DIOTMaxime4601988252SEM618M00:56:14.41
10KM LABEL REGIONAL753TRONINAAdrien15791989253SEM619M00:56:14.81
10KM LABEL REGIONAL754FERNANDESANTONIO10281991254SEM620M00:56:16.50
10KM LABEL REGIONAL755DECLERCQRomaine15932591554196515V2F135F00:56:16.52US MARQUETTE
10KM LABEL REGIONAL756MASTALERZMELANIE1894529755197137V1F136F00:56:17.12US MARQUETTE
10KM LABEL REGIONAL757GHESTEMNathalie548196838V1F137F00:56:17.64
10KM LABEL REGIONAL758BOUTRYPIERRE ANDRE14911970221V1M621M00:56:19.48
10KM LABEL REGIONAL759TARDYDamien9141976222V1M622M00:56:19.69
10KM LABEL REGIONAL760ZIGANTEThierry1020196188V2M623M00:56:20.59
10KM LABEL REGIONAL761BLANCKAERTJulien1831979255SEM624M00:56:23.25
10KM LABEL REGIONAL762BOUAZIZMEHDI17359082001980256SEM625M00:56:24.16TO BE SPORT
10KM LABEL REGIONAL763LEMAYAnne-France693198079SEF138F00:56:24.53
10KM LABEL REGIONAL764DESAGHERERIC411196489V2M626M00:56:25.15
10KM LABEL REGIONAL765POLLETArthur8441991257SEM627M00:56:26.20
10KM LABEL REGIONAL766TONNELAurelie1404197639V1F139F00:56:26.35
10KM LABEL REGIONAL767DEJARDIN NAVARROHelene1034196616V2F140F00:56:31.22
10KM LABEL REGIONAL768COLETTEArnaud10321969223V1M628M00:56:31.43
10KM LABEL REGIONAL769MOULINGeorges-Eric7931979258SEM629M00:56:33.99
10KM LABEL REGIONAL770CRETONFlora31619992JUF141F00:56:34.89AC MARCQUOIS
10KM LABEL REGIONAL771MAIGNONLuc7411979259SEM630M00:56:34.89
10KM LABEL REGIONAL772JOLYMarina626197240V1F142F00:56:38.28FOULEES SAINGHINOISES
10KM LABEL REGIONAL773VAN NIEUWENHYSEHerve9501974224V1M631M00:56:39.61
10KM LABEL REGIONAL774OBJOISBERNARD1462195021V3M632M00:56:41.33
10KM LABEL REGIONAL775LAGRAULETBenjamin6451973225V1M633M00:56:44.30
10KM LABEL REGIONAL776PHILIPPEPatrick8321980260SEM634M00:56:46.63
10KM LABEL REGIONAL777GALERNEMichel5331968226V1M635M00:56:46.68
10KM LABEL REGIONAL778LEROYJulie704197980SEF143F00:56:46.76
10KM LABEL REGIONAL779BOUSSELSybill212199081SEF144F00:56:49.87
10KM LABEL REGIONAL780SANDEVOIRALEXIS16331976227V1M636M00:56:51.18
10KM LABEL REGIONAL781DEPREZSANDRINE1866585405197441V1F145F00:56:52.12PLANETE RUNNING AND WALKING
10KM LABEL REGIONAL782FATRASLAURENT368951512196590V2M637M00:56:52.54PLANETE RUNNING AND WALKING
10KM LABEL REGIONAL783SITBONPhilippe15231970228V1M638M00:56:53.09
10KM LABEL REGIONAL784PAGETDorothée808196217V2F146F00:56:54.85
10KM LABEL REGIONAL785GAMOTFabrice14501973229V1M639M00:56:55.95
10KM LABEL REGIONAL786COOREVITSLaurent2991968230V1M640M00:56:59.06
10KM LABEL REGIONAL787HODINCédric6051985261SEM641M00:57:02.69
10KM LABEL REGIONAL788DEWITTEPeggy447197882SEF147F00:57:02.91
10KM LABEL REGIONAL789LECHARTREJean-Luc667196791V2M642M00:57:04.64
10KM LABEL REGIONAL790DI BARTOLOVirginie1511899458197342V1F148F00:57:05.44JOGGING AVENTURE RONCQUOISE
10KM LABEL REGIONAL791SAMAILLEStephane890196092V2M643M00:57:06.73
10KM LABEL REGIONAL792VANAEMORTEELELEO1601199516ESM644M00:57:08.79
10KM LABEL REGIONAL793LE CORNECMorgane660198883SEF149F00:57:12.92FA WASQUEHAL
10KM LABEL REGIONAL794CRETONColleen31520011CAF150F00:57:14.45AC MARCQUOIS
10KM LABEL REGIONAL795BARBEEric1402196593V2M645M00:57:20.68
10KM LABEL REGIONAL796BOUCHEJackie1086975153319464V4M646M00:57:20.74JOGGING AVENTURE RONCQUOISE
10KM LABEL REGIONAL797TIRLOITOPHELIE929198184SEF151F00:57:21.12TRIATHLON HALLUIN
10KM LABEL REGIONAL798MACKEAurore735198885SEF152F00:57:23.68
10KM LABEL REGIONAL799DESFFONTAINESJean-pierre420196794V2M647M00:57:24.04
10KM LABEL REGIONAL800VERMEERSCHCaroline982198686SEF153F00:57:24.38
10KM LABEL REGIONAL801INNOCENTISarah618197443V1F154F00:57:25.82
10KM LABEL REGIONAL802WATHIERHubert10051968231V1M648M00:57:25.82
10KM LABEL REGIONAL803AGÉOlivia122198487SEF155F00:57:27.13
10KM LABEL REGIONAL804HASBROUCQCharlotte1587197888SEF156F00:57:28.56
10KM LABEL REGIONAL805MARANTÉmilie751198089SEF157F00:57:28.87
10KM LABEL REGIONAL806DE ST SEINELaurence344197990SEF158F00:57:29.58
10KM LABEL REGIONAL807COISNEAudrey296197744V1F159F00:57:29.71
10KM LABEL REGIONAL808LINDVernon717196695V2M649M00:57:29.89
10KM LABEL REGIONAL809CATTEAUBernard434107pr267195222V3M650M00:57:30.96
10KM LABEL REGIONAL810LAMARAMUSTAPHA1479196196V2M651M00:57:31.92
10KM LABEL REGIONAL811KEUSSEIANGeraldineA68696C1476199391SEF160F00:57:32.46WASQUEHAL TRIATHLON
10KM LABEL REGIONAL812BETHENCOURTDamien14751983262SEM652M00:57:32.84
10KM LABEL REGIONAL813GRISONADELINE1665198192SEF161F00:57:38.88
10KM LABEL REGIONAL814DELANNOYGabin3681984263SEM653M00:57:42.37
10KM LABEL REGIONAL815DELGRANCHEDavid3821975232V1M654M00:57:45.07RUN IN BOUSBECQUE
10KM LABEL REGIONAL816SOODTSJULIEN9061985264SEM655M00:57:45.97
10KM LABEL REGIONAL817LAMBOURPierre649196297V2M656M00:57:46.65
10KM LABEL REGIONAL818LIENARDMargot71519955ESF162F00:57:46.81
10KM LABEL REGIONAL819DE BOURMONTBruno3331970233V1M657M00:57:50.53
10KM LABEL REGIONAL820LECLERCQLAURENT6721975234V1M658M00:57:53.62
10KM LABEL REGIONAL821HERNAULTGUILLAUME16271989265SEM659M00:57:54.78
10KM LABEL REGIONAL822HERVEAymeric5931981266SEM660M00:57:56.70
10KM LABEL REGIONAL823BLAINEric14201981267SEM661M00:57:57.11
10KM LABEL REGIONAL824N@HOTMAAILElodie1435197893SEF163F00:58:02.06
10KM LABEL REGIONAL825TOULEMONDEChristophe9341977235V1M662M00:58:02.58
10KM LABEL REGIONAL826FONTAINEAdrien524200115CAM663M00:58:03.84
10KM LABEL REGIONAL827FULLHARTYves1568195723V3M664M00:58:05.69
10KM LABEL REGIONAL828BELVALSTEPHANE167196298V2M665M00:58:07.18
10KM LABEL REGIONAL829VERMESAlison983198994SEF164F00:58:07.50
10KM LABEL REGIONAL830HURETPhilippe6141974236V1M666M00:58:10.80
10KM LABEL REGIONAL831LEFEBVREMarine681199095SEF165F00:58:11.29
10KM LABEL REGIONAL832KIDEYAndre634195999V2M667M00:58:11.39
10KM LABEL REGIONAL833LECLERCQPhilippe675194924V3M668M00:58:11.87
10KM LABEL REGIONAL834BOUTRYGaetan2141973237V1M669M00:58:12.47
10KM LABEL REGIONAL835DHELLEMGaetan14431979268SEM670M00:58:13.61
10KM LABEL REGIONAL836DALLEMAGNEUGO16301990269SEM671M00:58:16.72
10KM LABEL REGIONAL837BERAULT BODINSophie170197545V1F166F00:58:17.68
10KM LABEL REGIONAL838CHOCHOIMaxime2851983270SEM672M00:58:20.45
10KM LABEL REGIONAL839BIELAWSKIMarie177197746V1F167F00:58:21.05
10KM LABEL REGIONAL840LEROYJuliette705197747V1F168F00:58:25.99
10KM LABEL REGIONAL841LORTHOLARYRomain7261981271SEM673M00:58:31.19
10KM LABEL REGIONAL842DESPRESBenoît4251968238V1M674M00:58:32.64
10KM LABEL REGIONAL843MALYSSESTEPHANIE748197348V1F169F00:58:33.16
10KM LABEL REGIONAL844TESSONYves9171963100V2M675M00:58:41.10
10KM LABEL REGIONAL845DUMORTIERAnaïs486199496SEF170F00:58:42.85
10KM LABEL REGIONAL846DUCHATELLELucie477198797SEF171F00:58:45.93
10KM LABEL REGIONAL847BENOUALYYounes1681980272SEM676M00:58:47.13
10KM LABEL REGIONAL848BASTIENNathalie157197749V1F172F00:58:47.85
10KM LABEL REGIONAL849GUYOTCEDRIC5721976239V1M677M00:58:51.35
10KM LABEL REGIONAL850HERISSONAstrid1427198598SEF173F00:58:53.57
10KM LABEL REGIONAL851BUISSIEREVincent2321972240V1M678M00:58:54.30
10KM LABEL REGIONAL852BUISSIERECharlotte231197550V1F174F00:58:54.40
10KM LABEL REGIONAL853THIELLAETITIA921197551V1F175F00:58:55.46
10KM LABEL REGIONAL854DEFONTAINECHRISTIAN1483195525V3M679M00:58:57.10
10KM LABEL REGIONAL855VALLAEYSFrancoise943197652V1F176F00:58:58.59
10KM LABEL REGIONAL856DEVEAUXBRUNO4361984273SEM680M00:59:07.85
10KM LABEL REGIONAL857LHOMMEFLORENCE710199099SEF177F00:59:07.96
10KM LABEL REGIONAL858SALLESNICOLAS8891982274SEM681M00:59:08.54
10KM LABEL REGIONAL859BAUDINAurore1591993100SEF178F00:59:10.97
10KM LABEL REGIONAL860CHAUVELAURELIE2801984101SEF179F00:59:12.00
10KM LABEL REGIONAL861LEMAHIEU WUILBAUTMelanie6911985102SEF180F00:59:12.91
10KM LABEL REGIONAL862BRESPHILIPPE218195726V3M682M00:59:13.89
10KM LABEL REGIONAL863RIVIEREEDWIGE873196018V2F181F00:59:14.48
10KM LABEL REGIONAL864VAN ROOSBEKESteeve9511986275SEM683M00:59:23.77
10KM LABEL REGIONAL865GARABIOLNicolas5351976241V1M684M00:59:24.34
10KM LABEL REGIONAL866PICHAGuillaume8331975242V1M685M00:59:29.65
10KM LABEL REGIONAL867DOUINÉdouard466200116CAM686M00:59:35.48
10KM LABEL REGIONAL868BRIANCHONCLAIRE1490196419V2F182F00:59:36.01
10KM LABEL REGIONAL869BOURLETSimon2081994276SEM687M00:59:36.31
10KM LABEL REGIONAL870LEBECQUEMARIE16341989103SEF183F00:59:37.66
10KM LABEL REGIONAL871GALINIEREDITH534197053V1F184F00:59:37.91
10KM LABEL REGIONAL872GORONCeline5541988104SEF185F00:59:37.98
10KM LABEL REGIONAL873POLLETAnne843196120V2F186F00:59:38.72
10KM LABEL REGIONAL874FISELLEXAVIER5201969243V1M688M00:59:39.23
10KM LABEL REGIONAL875DUBUISDave4741979277SEM689M00:59:40.93
10KM LABEL REGIONAL876TISONDominique93019562V3F187F00:59:42.28
10KM LABEL REGIONAL877VERGOTEBetty976196721V2F188F00:59:42.45
10KM LABEL REGIONAL878HENONANNE CATHERINE587197254V1F189F00:59:42.49
10KM LABEL REGIONAL879HUAUXSERGE612195327V3M690M00:59:42.85
10KM LABEL REGIONAL880DENOYELLEBertrand3991963101V2M691M00:59:45.48
10KM LABEL REGIONAL881VAUTHIERSTEPHANIE9701980105SEF190F00:59:48.58
10KM LABEL REGIONAL882DEMUYNCKLudivine15191978106SEF191F00:59:48.76
10KM LABEL REGIONAL883DE LA BRETESCHEGuillaume3381982278SEM692M00:59:48.83
10KM LABEL REGIONAL884BRABANTCorentin14221981279SEM693M00:59:49.67
10KM LABEL REGIONAL885BRICHECoralie2211983107SEF192F00:59:50.95
10KM LABEL REGIONAL886PECHERONCARLOS16291977244V1M694M00:59:54.20
10KM LABEL REGIONAL887ARRIBASPABLO14841970245V1M695M00:59:54.59
10KM LABEL REGIONAL888TOUSSAINTRenaud17484579351971246V1M696M00:59:55.97
10KM LABEL REGIONAL889DUHAMELFabien4841986280SEM697M00:59:56.50
10KM LABEL REGIONAL890FAUQUEMBERGUEEmeline5141989108SEF193F00:59:56.52
10KM LABEL REGIONAL891VANDERMEIRSSCHEIsabelle959197055V1F194F00:59:57.17
10KM LABEL REGIONAL892KIDEYIngrid6351990109SEF195F00:59:57.53
10KM LABEL REGIONAL893DEVROEDEAdeline4431990110SEF196F00:59:57.59
10KM LABEL REGIONAL894BLAVOETLaury184197756V1F197F00:59:57.62
10KM LABEL REGIONAL895SIMONNicolas9001984281SEM698M00:59:58.74
10KM LABEL REGIONAL896JOURDAINElodie6281985111SEF198F00:59:58.81
10KM LABEL REGIONAL897SEYNAVEFrance898197357V1F199F00:59:59.65
10KM LABEL REGIONAL898GROGNETAnne1451196858V1F200F01:00:02.55
10KM LABEL REGIONAL899RENAUDETANTHONY8641982282SEM699M01:00:03.38
10KM LABEL REGIONAL900HOCQUETGWENAELLE6041983112SEF201F01:00:04.96
10KM LABEL REGIONAL901WOLKEStefanie10141987113SEF202F01:00:07.74
10KM LABEL REGIONAL902DUHAMELClaire4831993114SEF203F01:00:08.48
10KM LABEL REGIONAL903DE CHATEAUBOURGBERTRAND3351968247V1M700M01:00:14.63
10KM LABEL REGIONAL904VARDONFrancois9671966102V2M701M01:00:14.77
10KM LABEL REGIONAL905DELPLANQUEChloé3871990115SEF204F01:00:17.04
10KM LABEL REGIONAL906BEAURAINAURORE1621980116SEF205F01:00:19.98
10KM LABEL REGIONAL907GUISEIsabelle5711981117SEF206F01:00:21.87
10KM LABEL REGIONAL908CLERCLudovic Jerome2931970248V1M702M01:00:22.34
10KM LABEL REGIONAL909FRETINNicolas5311983283SEM703M01:00:24.19
10KM LABEL REGIONAL910MOREAUNicolas7891985284SEM704M01:00:24.90
10KM LABEL REGIONAL911KINNENAUDREY6361978118SEF207F01:00:28.00
10KM LABEL REGIONAL912POURBAIXCHANTAL849196222V2F208F01:00:28.38
10KM LABEL REGIONAL913DEWITTESEBASTIEN16111973249V1M705M01:00:31.57
10KM LABEL REGIONAL914SOMERLINCKAxel9031991285SEM706M01:00:32.82
10KM LABEL REGIONAL915LECHATDiane6681987119SEF209F01:00:33.99
10KM LABEL REGIONAL916MAZZOTTARAFFAELE12160637621982286SEM707M01:00:42.71JOGGING AVENTURE RONCQUOISE
10KM LABEL REGIONAL917DEROSEDimitri4081983287SEM708M01:00:43.49
10KM LABEL REGIONAL918VANACKERRoxane952196859V1F210F01:00:44.19
10KM LABEL REGIONAL919VANBRUGGELaetitia9531985120SEF211F01:00:45.76
10KM LABEL REGIONAL920ORANClaude8061962103V2M709M01:00:47.35
10KM LABEL REGIONAL921MAUNAYSERGE17779777591972250V1M710M01:00:50.72US TOURCOING
10KM LABEL REGIONAL922DUSARTCLAIRE4991980121SEF212F01:00:52.24
10KM LABEL REGIONAL923SLAMAMejdi9021966104V2M711M01:01:01.83
10KM LABEL REGIONAL924JACQUESAmandine6211983122SEF213F01:01:02.81
10KM LABEL REGIONAL925DE VOISINSGEORGES16311972251V1M712M01:01:06.22
10KM LABEL REGIONAL926DEVOBINSEDOUARD16351970252V1M713M01:01:06.57
10KM LABEL REGIONAL927VANNEVELSYLVIANE1659196723V2F214F01:01:13.56
10KM LABEL REGIONAL928VANNEVELLAURENT42606516601966105V2M714M01:01:14.18
10KM LABEL REGIONAL929BOUCHAERTFrancois2011969253V1M715M01:01:15.81
10KM LABEL REGIONAL930CARONAurelie2571984123SEF215F01:01:18.12
10KM LABEL REGIONAL931NAYEMichel976444796195728V3M716M01:01:26.17
10KM LABEL REGIONAL932BRABANTAngelique1434196524V2F216F01:01:26.82
10KM LABEL REGIONAL933BRABANTEmeric14331963106V2M717M01:01:27.59
10KM LABEL REGIONAL934MARCHANDAxelle143619993JUF217F01:01:27.81
10KM LABEL REGIONAL935SCHMITTHELENE8951986124SEF218F01:01:29.23
10KM LABEL REGIONAL936DEHONDTArthur3571990288SEM718M01:01:29.55
10KM LABEL REGIONAL937BOUSSEKEYSeverine211197160V1F219F01:01:33.15
10KM LABEL REGIONAL938BRESCAROLINE217197461V1F220F01:01:33.65
10KM LABEL REGIONAL939POLUSDorian8471987289SEM719M01:01:36.93
10KM LABEL REGIONAL940FERREIRALea5171987125SEF221F01:01:37.29
10KM LABEL REGIONAL941DHOINEXavier4571980290SEM720M01:01:37.92
10KM LABEL REGIONAL942DHOINEIngrid4561982126SEF222F01:01:38.15
10KM LABEL REGIONAL943GENYSophie547197462V1F223F01:01:38.68
10KM LABEL REGIONAL944SANCHEZArturo8911971254V1M721M01:01:39.34
10KM LABEL REGIONAL945DESTAILLEURPeggy alexandra433197363V1F224F01:01:44.77
10KM LABEL REGIONAL946FICHAUXJean Pierre5191974255V1M722M01:01:49.44
10KM LABEL REGIONAL947SITBONChristine1567197464V1F225F01:01:57.45
10KM LABEL REGIONAL948BRIANDMathilde2201988127SEF226F01:01:58.61
10KM LABEL REGIONAL949BECOURTAline1641983128SEF227F01:01:59.01
10KM LABEL REGIONAL950MAZIERESMargaux7611993129SEF228F01:02:03.16
10KM LABEL REGIONAL951VIGARIÉJulien9901991291SEM723M01:02:03.19
10KM LABEL REGIONAL952DEMUYNCKDorothee394197165V1F229F01:02:03.99
10KM LABEL REGIONAL953DESTAILLEURFREDERIC JACQUES4321965107V2M724M01:02:17.67
10KM LABEL REGIONAL954PELISSIERCharles8211986292SEM725M01:02:30.72
10KM LABEL REGIONAL955COISNEEmilie297197766V1F230F01:02:34.83
10KM LABEL REGIONAL956FONTAINEEmmanuelle525197267V1F231F01:02:44.24
10KM LABEL REGIONAL957DE MENDONÇAMarie-Christine3411984130SEF232F01:02:44.31
10KM LABEL REGIONAL958DEMARETMathilde3931983131SEF233F01:02:44.31
10KM LABEL REGIONAL959CAPELLEMATHILDE16181985132SEF234F01:02:50.57
10KM LABEL REGIONAL960ROGERIEMARIE8771981133SEF235F01:02:51.22
10KM LABEL REGIONAL961DRIEUDIDIER468195029V3M726M01:02:55.52
10KM LABEL REGIONAL962LE ROLLANDAURELIE6631982134SEF236F01:02:55.65
10KM LABEL REGIONAL963MARSILLERita1566196425V2F237F01:02:56.14
10KM LABEL REGIONAL964DARGENTAnne-Sophie3301990135SEF238F01:02:59.04
10KM LABEL REGIONAL965MAINTIERVincent7421974256V1M727M01:03:02.31
10KM LABEL REGIONAL966DOSSINAmandine4641981136SEF239F01:03:03.01
10KM LABEL REGIONAL967VARINPatrick16001961108V2M728M01:03:05.02
10KM LABEL REGIONAL968TYOENSebastien14121975257V1M729M01:03:07.56
10KM LABEL REGIONAL969SUAREZManuella908197068V1F240F01:03:14.59
10KM LABEL REGIONAL970SUAREZSalvino9091965109V2M730M01:03:14.64
10KM LABEL REGIONAL971HATTENDORFFCaroline5791985137SEF241F01:03:14.96
10KM LABEL REGIONAL972LEFEBVREAnne6771985138SEF242F01:03:17.12
10KM LABEL REGIONAL973CAPOENMARGAUX16521990139SEF243F01:03:23.40
10KM LABEL REGIONAL974DUBRUNFAUTSuzanne15091988140SEF244F01:03:23.59
10KM LABEL REGIONAL975FERREIRAOLIVIER5181988293SEM731M01:03:30.42
10KM LABEL REGIONAL976COLETTEAgathe1033197069V1F245F01:03:31.36
10KM LABEL REGIONAL977PINIERCarole1577197270V1F246F01:03:33.90
10KM LABEL REGIONAL978MAGDELAINECaroline15301978141SEF247F01:03:36.20
10KM LABEL REGIONAL979CERRILaetitia275197771V1F248F01:03:38.31
10KM LABEL REGIONAL980CERRIChristophe2741976258V1M732M01:03:38.68
10KM LABEL REGIONAL981DARTHOITDelphine332197572V1F249F01:03:39.46
10KM LABEL REGIONAL982COCHEZSTEPHANE18632572941979294SEM733M01:03:40.47JOGGING CLUB BILLY BERCLA
10KM LABEL REGIONAL983WILMOTTEAude1012197373V1F250F01:03:44.68
10KM LABEL REGIONAL984BONPAINGrégoire1931987295SEM734M01:03:49.95
10KM LABEL REGIONAL985CALIMETJUDITH246197274V1F251F01:03:52.88
10KM LABEL REGIONAL986CALIMETCHRISTOPHE2451970259V1M735M01:03:53.52
10KM LABEL REGIONAL987BUKUDJIANSerge23319455V4M736M01:03:55.55
10KM LABEL REGIONAL988ANDREVERONIQUE131196726V2F252F01:03:59.82
10KM LABEL REGIONAL989LEFEBVREPierre6831976260V1M737M01:04:03.65
10KM LABEL REGIONAL990AUBECQMarie1381988142SEF253F01:04:09.63
10KM LABEL REGIONAL991HAEBERLEAlexandre5731988296SEM738M01:04:09.83
10KM LABEL REGIONAL992DUJARDINVirginie4851987143SEF254F01:04:13.04
10KM LABEL REGIONAL993DECROIXCHRISTOPHE3501972261V1M739M01:04:18.62LEERS VOLLEY CLUB
10KM LABEL REGIONAL994BARITAUXClaire1541988144SEF255F01:04:24.68
10KM LABEL REGIONAL995LAURENCELBeatrice1442196975V1F256F01:04:27.05
10KM LABEL REGIONAL996DEPOORTERNicolas4041984297SEM740M01:04:27.70
10KM LABEL REGIONAL997BARBOSAClothilde1521987145SEF257F01:04:35.64
10KM LABEL REGIONAL998ETORÉStephane5091987298SEM741M01:04:36.24
10KM LABEL REGIONAL999VAN LOVERENDenis15741989299SEM742M01:04:38.39
10KM LABEL REGIONAL1000DUPONTCandice4911988146SEF258F01:04:38.49
10KM LABEL REGIONAL1001DESPRESMARIE4261994147SEF259F01:04:50.09
10KM LABEL REGIONAL1002FEUILLETAnne-Claude14381980148SEF260F01:04:53.82
10KM LABEL REGIONAL1003HILLEWAEREJean Pierre601195430V3M743M01:04:58.32
10KM LABEL REGIONAL1004CHIARENZALAURENCE284196976V1F261F01:05:00.52
10KM LABEL REGIONAL1005POLIGNÉStéphanie8421978149SEF262F01:05:06.20
10KM LABEL REGIONAL1006LEROUXGuirec7031975262V1M744M01:05:07.94
10KM LABEL REGIONAL1007CAMPIONFabien14141965110V2M745M01:05:10.72
10KM LABEL REGIONAL1008DIONVINCIANE1706150459197677V1F263F01:05:18.73US MARQUETTE
10KM LABEL REGIONAL1009RODRIGUESMichel874195531V3M746M01:05:21.98
10KM LABEL REGIONAL1010VANDERMEIRSSCHEVincent9601969263V1M747M01:05:24.32
10KM LABEL REGIONAL1011THIBAULTANGELIQUE919197178V1F264F01:05:30.65
10KM LABEL REGIONAL1012VILLIERFRANCOIS9941965111V2M748M01:05:33.49
10KM LABEL REGIONAL1013DEVRIESEMichael4421973264V1M749M01:05:42.50
10KM LABEL REGIONAL1014DEVRIESEEugenie1543197779V1F265F01:05:42.68
10KM LABEL REGIONAL1015VERLAINENADEGE18945359811978150SEF266F01:05:49.74US MARQUETTE
10KM LABEL REGIONAL1016DELCENSERIEElodie3751984151SEF267F01:05:53.38Les z'amis coureurs de Lambersart
10KM LABEL REGIONAL1017BOQUETEmmanuelle1941985152SEF268F01:05:55.12
10KM LABEL REGIONAL1018HAUVirginie1527197280V1F269F01:06:07.17
10KM LABEL REGIONAL1019HERLINMarie-Laure589196227V2F270F01:06:09.67
10KM LABEL REGIONAL1020ALBERT DUBUISDorine125197481V1F271F01:06:10.52
10KM LABEL REGIONAL1021GAUTIERDelphine541197682V1F272F01:06:18.40
10KM LABEL REGIONAL1022CARTIERJuliette2611993153SEF273F01:06:19.55
10KM LABEL REGIONAL1023LABURIAUJustine6431992154SEF274F01:06:22.44
10KM LABEL REGIONAL1024POIRETElodie8411992155SEF275F01:06:22.48
10KM LABEL REGIONAL1025MARTINEZKathy753196428V2F276F01:06:26.88
10KM LABEL REGIONAL1026WITTOUCKGilles10131958112V2M750M01:06:26.88
10KM LABEL REGIONAL1027CHARTIERVeronique1555196629V2F277F01:06:27.00RUNNERS DE BONDUES
10KM LABEL REGIONAL1028CHARTIERLudovic15561966113V2M751M01:06:28.03RUNNERS DE BONDUES
10KM LABEL REGIONAL1029DUBARFaustine4701986156SEF278F01:06:30.89
10KM LABEL REGIONAL1030MERYAlexandre7681990300SEM752M01:06:30.91
10KM LABEL REGIONAL1031PARISSEEmanuelle8121979157SEF279F01:06:53.30
10KM LABEL REGIONAL1032COQUELValérie302197083V1F280F01:06:53.44RUNNINGHEM
10KM LABEL REGIONAL1033RANCIERLaetitia8591980158SEF281F01:06:53.53
10KM LABEL REGIONAL1034PETIT-MALTAVERNENATHALIE1954699828197284V1F282F01:06:53.79PLANETE RUNNING AND WALKING
10KM LABEL REGIONAL1035LEFEBVREIRENEE PIERRE MICHEL679194932V3M753M01:06:54.74FSPN
10KM LABEL REGIONAL1036LICCIARDOSarah71219966ESF283F01:06:56.36
10KM LABEL REGIONAL1037DUCOULOMBIERAnne Flore4791980159SEF284F01:07:07.77
10KM LABEL REGIONAL1038THIRAPOUNNHOAurelie9221982160SEF285F01:07:07.84
10KM LABEL REGIONAL1039DE LA BRETESCHEFrance-Anne3371982161SEF286F01:07:07.93
10KM LABEL REGIONAL1040DEL NIDOClara3621992162SEF287F01:07:10.71
10KM LABEL REGIONAL1041BUISSETCharlotte230196985V1F288F01:07:10.79
10KM LABEL REGIONAL1042CROIXPierre Emmanuel3170301SEM754M01:07:15.60
10KM LABEL REGIONAL1043RYSSENEMELINE11982798851989163SEF289F01:07:16.30US TOURCOING
10KM LABEL REGIONAL1044BARONANNE1657196030V2F290F01:07:24.33
10KM LABEL REGIONAL1045DUBUTSTEPHANIE475197386V1F291F01:07:24.68
10KM LABEL REGIONAL1046BOSSVirginie1552197387V1F292F01:07:25.11
10KM LABEL REGIONAL1047VENANCIOGabriel9711975265V1M755M01:07:25.15
10KM LABEL REGIONAL1048LHOTELLERIEDavid15501970266V1M756M01:07:25.42
10KM LABEL REGIONAL1049DE CHATEAUBOURGSIMON336200117CAM757M01:07:27.85
10KM LABEL REGIONAL1050CAGGIANELLEPasqualina243197188V1F293F01:07:41.08
10KM LABEL REGIONAL1051LOUEFranck7281972267V1M758M01:07:45.78
10KM LABEL REGIONAL1052BAUDINETStephane15001972268V1M759M01:07:47.83
10KM LABEL REGIONAL1053MANDRONMICKAEL14881976269V1M760M01:07:50.03
10KM LABEL REGIONAL1054GREGOIREFrançois15011977270V1M761M01:07:50.47
10KM LABEL REGIONAL1055BEHINCecile15621983164SEF294F01:07:51.44
10KM LABEL REGIONAL1056DOLIGEZSandrine4621978165SEF295F01:07:54.32
10KM LABEL REGIONAL1057HAYCaroline582197489V1F296F01:07:55.75
10KM LABEL REGIONAL1058VAN HAUTE- COLDEFYIsabel9461978166SEF297F01:08:04.45
10KM LABEL REGIONAL1059HENDOUXMarie14441990167SEF298F01:08:14.44
10KM LABEL REGIONAL1060HOCHARTMARIE6031991168SEF299F01:08:15.04
10KM LABEL REGIONAL1061VERBEECKVALENTINE9731989169SEF300F01:08:18.41
10KM LABEL REGIONAL1062MORETVirginie7901978170SEF301F01:08:58.36
10KM LABEL REGIONAL1063AYENAVERONIQUE14891982171SEF302F01:09:06.99
10KM LABEL REGIONAL1064THIBEAUAnne-Sophie1429197690V1F303F01:09:13.87
10KM LABEL REGIONAL1065GUIOTAnne sophie5701982172SEF304F01:09:25.25
10KM LABEL REGIONAL1066LERUSTEKarl7061976271V1M762M01:09:25.38
10KM LABEL REGIONAL1067KOTLARDidier15031967114V2M763M01:09:30.70
10KM LABEL REGIONAL1068DUQUESNOYMarie4941979173SEF305F01:09:36.13
10KM LABEL REGIONAL1069DEWEPPEStéphanie446197591V1F306F01:09:36.20
10KM LABEL REGIONAL1070SONNEVILLEMargot90519957ESF307F01:09:37.58
10KM LABEL REGIONAL1071TADJINEAthmane9121991302SEM764M01:09:38.22
10KM LABEL REGIONAL1072MOHAMED TANVIRAhmed1580200018CAM765M01:09:58.81
10KM LABEL REGIONAL1073SALEMBIERThomas8881986303SEM766M01:10:12.38
10KM LABEL REGIONAL1074BROUARDClaire2261986174SEF308F01:10:12.68
10KM LABEL REGIONAL1075LECROQJulien15881987304SEM767M01:10:22.31
10KM LABEL REGIONAL1076FOURNIERDamien5271963115V2M768M01:10:30.07
10KM LABEL REGIONAL1077HALBEHERAnna5751989175SEF309F01:10:44.53
10KM LABEL REGIONAL1078CHATELAINEstelle2791993176SEF310F01:11:08.38
10KM LABEL REGIONAL1079GOMESAlexis5531993305SEM769M01:11:08.76
10KM LABEL REGIONAL1080BUSSIEREAnne-Sophie235197492V1F311F01:11:12.41
10KM LABEL REGIONAL1081BUSSIEREPierre-Olivier2361983306SEM770M01:11:12.73
10KM LABEL REGIONAL1082TIERRIEJean Philippe186690315261969272V1M771M01:11:34.63JOGGING AVENTURE RONCQUOISE
10KM LABEL REGIONAL1083NOLFCatherine19393121525196893V1F312F01:11:34.64JOGGING AVENTURE RONCQUOISE
10KM LABEL REGIONAL1084ABRAMOLetizia14031981177SEF313F01:12:00.15
10KM LABEL REGIONAL1085VERCOUTERENathalie9751979178SEF314F01:12:21.02
10KM LABEL REGIONAL1086GUINEMERMathilde5671989179SEF315F01:12:21.03
10KM LABEL REGIONAL1087TURANCLAIRE938197494V1F316F01:12:24.54
10KM LABEL REGIONAL1088BECOURTVeronique165196631V2F317F01:12:33.51
10KM LABEL REGIONAL1089BEBINAgnès163196895V1F318F01:12:42.81
10KM LABEL REGIONAL1090D'HELFSabine320196896V1F319F01:12:44.04
10KM LABEL REGIONAL1091MASUREVinciane7571979180SEF320F01:13:14.65
10KM LABEL REGIONAL1092MASUREDavid7561977273V1M772M01:13:14.88
10KM LABEL REGIONAL1093KLEINMélanie6371978181SEF321F01:13:22.38
10KM LABEL REGIONAL1094CHASTANAstrid2781988182SEF322F01:13:22.96
10KM LABEL REGIONAL1095WILLEMOTTEHélène1010197797V1F323F01:13:24.03
10KM LABEL REGIONAL1096MORLIGHEMSTEPHANIE1637197598V1F324F01:13:24.18
10KM LABEL REGIONAL1097DUPONTALEXIA16141985183SEF325F01:13:24.72
10KM LABEL REGIONAL1098KLEINPierre638195233V3M773M01:13:24.86
10KM LABEL REGIONAL1099TASSARTEmmanuelle9151990184SEF326F01:13:45.69
10KM LABEL REGIONAL1100DUPONTChloé4921993185SEF327F01:13:45.96
10KM LABEL REGIONAL1101PILLIRILLIKEVIN16061989307SEM774M01:14:32.78
10KM LABEL REGIONAL1102POLLETVolcy144720012CAF328F01:15:16.32
10KM LABEL REGIONAL1103GOSSEYEAurelie5571990186SEF329F01:15:49.85
10KM LABEL REGIONAL1104PETITMaud8261979187SEF330F01:16:20.07
10KM LABEL REGIONAL1105VANNEAUNOELIE9661983188SEF331F01:16:21.46
10KM LABEL REGIONAL1106BOUHAMIDIAziza2031992189SEF332F01:17:50.79
10KM LABEL REGIONAL1107MAIZELLeon155319476V4M775M01:18:13.75
10KM LABEL REGIONAL1108FERREIRAElisabeth516197299V1F333F01:19:03.29
10KM LABEL REGIONAL1109BOITTEManuella191196732V2F334F01:19:03.51
10KM LABEL REGIONAL1110HILAIREMathilde5991982190SEF335F01:20:37.14
10KM LABEL REGIONAL1111THUILLIERAnnaëlle9261986191SEF336F01:20:37.46
10KM LABEL REGIONAL0ANSARTLaure13219650V2F0F00:00:00.00
10KM LABEL REGIONAL0AVONTSARNAUD196325514119860SEM0M00:00:00.00US VALENCIENNES ATHLETISME
10KM LABEL REGIONAL0BALDominique14519680V1M0M00:00:00.00
10KM LABEL REGIONAL0BERNAGOUThomas17319950ESM0M00:00:00.00
10KM LABEL REGIONAL0BERTRANDDOUGLAS17619760V1M0M00:00:00.00
10KM LABEL REGIONAL0BOCQUETClaire18519720V1F0F00:00:00.00
10KM LABEL REGIONAL0BOITTEYves19219670V2M0M00:00:00.00
10KM LABEL REGIONAL0BOURHISMarie20719940SEF0F00:00:00.00
10KM LABEL REGIONAL0CACCIAMANIArianna24119880SEF0F00:00:00.00
10KM LABEL REGIONAL0CALLEWAERTThierry24819660V2M0M00:00:00.00
10KM LABEL REGIONAL0CAQUANTVianney25519840SEM0M00:00:00.00
10KM LABEL REGIONAL0CAUDRONMaxime27119840SEM0M00:00:00.00
10KM LABEL REGIONAL0CHRETIENDelphine28719720V1F0F00:00:00.00
10KM LABEL REGIONAL0CHUFFARTMARINE191131228919830SEF0F00:00:00.00PLANETE RUNNING AND WALKING
10KM LABEL REGIONAL0CHUFFARTOlivier29019830SEM0M00:00:00.00
10KM LABEL REGIONAL0CLENETDaniel29119610V2M0M00:00:00.00
10KM LABEL REGIONAL0COPIEMaxime30019940SEM0M00:00:00.00
10KM LABEL REGIONAL0COUSTENOBLELaura31219910SEF0F00:00:00.00
10KM LABEL REGIONAL0DA SILVA FERREIRAGregoire32319950ESM0M00:00:00.00
10KM LABEL REGIONAL0DAVRINCHEPaul145500SEM0M00:00:00.00
10KM LABEL REGIONAL0DE SOUSAGuillaume34319880SEM0M00:00:00.00
10KM LABEL REGIONAL0DEFRANCEArnaud35319720V1M0M00:00:00.00
10KM LABEL REGIONAL0DELANNOYALAIN166419840SEM0M00:00:00.00
10KM LABEL REGIONAL0DELANNOYCLAIRE36519820SEF0F00:00:00.00
10KM LABEL REGIONAL0DELATTREPierre37319870SEM0M00:00:00.00
10KM LABEL REGIONAL0DESCAMPSAntoine41619910SEM0M00:00:00.00
10KM LABEL REGIONAL0DEVOSFRANCOIS163619780SEM0M00:00:00.00
10KM LABEL REGIONAL0DHALLUINThelma159320010CAF0F00:00:00.00
10KM LABEL REGIONAL0DUFOSSEZBaptiste48119910SEM0M00:00:00.00
10KM LABEL REGIONAL0DUMOULINAnthony48819950ESM0M00:00:00.00
10KM LABEL REGIONAL0DUPIREFrederic49019750V1M0M00:00:00.00
10KM LABEL REGIONAL0EL FATOUHIHAMID150122150619700V1M0M00:00:00.00OSM LOMME ATHLETISME
10KM LABEL REGIONAL0FLIPOLudovic52319830SEM0M00:00:00.00
10KM LABEL REGIONAL0GAUTIERFrank54219720V1M0M00:00:00.00
10KM LABEL REGIONAL0GILLOOTSVeronique55119700V1F0F00:00:00.00
10KM LABEL REGIONAL0GOUILLARDFelicien55819820SEM0M00:00:00.00
10KM LABEL REGIONAL0GOURVEZJean-jacques56019660V2M0M00:00:00.00
10KM LABEL REGIONAL0GUINEMERThérèse56919610V2F0F00:00:00.00
10KM LABEL REGIONAL0HAGNEREEstelle57419890SEF0F00:00:00.00
10KM LABEL REGIONAL0HAUCHARTPauline58019890SEF0F00:00:00.00
10KM LABEL REGIONAL0HENNEBICQUECLEMENCE58519830SEF0F00:00:00.00
10KM LABEL REGIONAL0HETIERVincent59419770V1M0M00:00:00.00
10KM LABEL REGIONAL0HOFFMANNNadege60800SEF0F00:00:00.00
10KM LABEL REGIONAL0KEIGNAERTMathieu158519860SEM0M00:00:00.00
10KM LABEL REGIONAL0KUHNGeraldine64219790SEF0F00:00:00.00
10KM LABEL REGIONAL0LACHMaxime154419810SEM0M00:00:00.00
10KM LABEL REGIONAL0LE CHEVALIERFLORENCE191130665919740V1F0F00:00:00.00PLANETE RUNNING AND WALKING
10KM LABEL REGIONAL0LE MOGUENRonan66219880SEM0M00:00:00.00
10KM LABEL REGIONAL0LEDRUCatherine67619630V2F0F00:00:00.00
10KM LABEL REGIONAL0LEFEBVREPauline68219820SEF0F00:00:00.00
10KM LABEL REGIONAL0LEFEBVREVIOLAINE152919910SEF0F00:00:00.00
10KM LABEL REGIONAL0LEPRÉVOSTMargaux70019890SEF0F00:00:00.00
10KM LABEL REGIONAL0LERICHEAmandine70119840SEF0F00:00:00.00
10KM LABEL REGIONAL0LFEBVREViolaine70919910SEF0F00:00:00.00
10KM LABEL REGIONAL0LIAGREChristophe71119690V1M0M00:00:00.00
10KM LABEL REGIONAL0LOCQUETNATHALIE180745771919610V2F0F00:00:00.00US MARQUETTE
10KM LABEL REGIONAL0LOOCKRegis72219650V2M0M00:00:00.00
10KM LABEL REGIONAL0LUCASJean francois73319680V1M0M00:00:00.00
10KM LABEL REGIONAL0MENTIONElise76519770V1F0F00:00:00.00
10KM LABEL REGIONAL0MILLSElodie78219850SEF0F00:00:00.00
10KM LABEL REGIONAL0MOUAFFAKLATIFA79219760V1F0F00:00:00.00
10KM LABEL REGIONAL0PEYRODIEFrancois151719650V2M0M00:00:00.00
10KM LABEL REGIONAL0PLASSONMICHEL83919530V3M0M00:00:00.00
10KM LABEL REGIONAL0POLLETGaston84519930SEM0M00:00:00.00
10KM LABEL REGIONAL0QUIEVRECHRISTOPHE146619700V1M0M00:00:00.00
10KM LABEL REGIONAL0RADOSZKEVIN194199985619920SEM0M00:00:00.00CLUB SPORTIF ATHLETISME AV
10KM LABEL REGIONAL0REMLIAli86219730V1M0M00:00:00.00
10KM LABEL REGIONAL0RODRIGUEZAlvaro87619850SEM0M00:00:00.00
10KM LABEL REGIONAL0SAVOUREArnaud159620000CAM0M00:00:00.00
10KM LABEL REGIONAL0SCHELLMathieu89419880SEM0M00:00:00.00
10KM LABEL REGIONAL0THIBIERGEClément92000SEM0M00:00:00.00
10KM LABEL REGIONAL0VERSCHELDEJulien98719840SEM0M00:00:00.00

Inscrivez-vous dès aujourd'hui

Les inscriptions sont ouvertes !